ECMWFFLT1_850_thetae_084.txt.gz
Theta_e
333 333 333 333 332 333 332 332 332 332 332 332 332 331 330 329 330 329 329 328 327 327 328 330 330 329 330 330 330 330 329 329 330 330 329 328 329 329 329 329 328 328 328 327 326 326 327 328 328 328 328 328 328 328 327 327 328 327 327 326 326 326 326
334 334 333 332 332 333 332 332 332 332 332 332 331 331 330 329 328 328 327 327 327 329 329 330 330 329 329 330 330 330 329 330 331 331 329 328 328 328 329 329 328 329 328 327 327 326 326 327 327 327 328 328 328 328 327 328 328 327 327 326 326 326 326
334 333 332 332 332 332 332 332 332 332 332 331 330 330 329 328 327 328 327 327 329 330 329 329 328 328 329 329 329 330 330 331 330 330 331 329 328 328 328 328 328 328 328 328 328 327 326 326 326 326 327 327 328 328 327 327 327 327 327 326 326 326 325
332 333 332 331 331 331 331 331 331 331 331 331 330 329 328 327 328 328 328 329 330 330 329 328 328 329 329 329 329 330 330 330 330 330 331 330 328 327 328 328 328 327 326 326 327 327 327 326 325 326 327 327 327 327 327 327 327 326 326 326 326 325 324
330 332 332 331 330 330 329 330 331 330 330 330 328 329 329 329 330 329 329 330 330 329 328 328 328 328 329 329 329 330 329 329 330 330 329 329 329 328 328 328 328 327 326 326 326 327 327 326 326 327 327 327 327 327 326 326 326 326 325 325 325 325 324
331 331 331 332 330 329 329 329 330 329 328 328 328 329 330 330 330 329 329 330 330 329 329 328 328 328 328 328 329 330 329 328 329 329 328 328 329 329 329 329 328 328 326 327 327 327 328 327 326 327 327 327 327 326 326 325 325 325 325 325 325 325 324
332 331 331 331 330 330 329 328 328 328 327 328 329 330 330 329 330 329 330 330 330 329 329 329 328 327 328 328 328 328 327 327 328 328 327 327 328 328 328 328 328 328 327 327 327 327 327 327 327 326 326 327 327 326 325 325 325 324 324 325 325 324 324
331 331 331 331 330 330 329 328 327 327 327 328 329 330 329 329 330 329 329 329 329 328 328 328 326 326 327 326 325 325 325 325 325 326 326 326 327 327 327 328 328 328 327 327 327 327 327 327 327 326 326 326 326 325 325 326 326 325 324 324 324 323 323
330 330 330 331 331 329 328 328 327 326 328 330 330 329 329 329 329 328 328 328 327 326 326 326 326 326 325 323 322 323 324 324 324 325 325 326 326 326 326 327 327 327 327 327 327 327 327 327 327 327 326 325 325 325 325 326 326 325 324 324 323 322 322
328 330 330 330 330 330 329 328 326 328 330 330 330 329 328 328 328 328 328 328 327 325 326 326 325 325 324 321 319 320 322 323 323 324 325 325 325 325 325 325 326 326 327 327 327 327 326 327 327 327 327 326 324 323 325 325 325 324 324 323 322 321 322
327 329 329 328 329 329 329 328 328 330 331 330 330 329 329 328 328 327 328 328 327 326 326 326 326 325 323 320 319 320 322 324 323 324 325 325 324 324 324 325 325 326 327 327 327 326 326 327 327 327 327 326 325 323 323 324 324 324 323 323 322 321 320
326 328 328 328 327 327 328 329 330 330 330 330 330 330 328 327 327 326 326 327 327 327 326 326 326 325 323 320 321 322 323 324 323 324 325 325 324 324 325 325 325 326 327 327 327 327 326 327 327 327 326 326 325 325 323 323 323 323 323 322 321 320 319
326 327 327 327 327 327 328 330 330 329 328 328 328 328 327 326 326 326 326 326 325 325 325 324 324 323 321 320 322 324 324 324 324 323 324 324 325 325 325 325 325 325 326 327 327 326 326 327 327 326 326 326 326 325 323 322 321 321 321 320 319 319 318
327 328 327 327 327 326 326 329 330 328 327 327 327 326 326 327 326 325 323 321 320 320 321 322 322 322 320 320 322 322 322 322 321 321 322 324 325 326 326 325 326 326 326 327 326 326 326 326 327 326 326 326 325 324 323 322 321 320 319 320 319 318 317
327 328 327 327 327 325 325 328 329 329 328 328 327 327 327 325 323 320 318 319 320 320 321 323 323 322 320 320 320 320 320 321 321 321 322 323 324 326 326 326 326 326 326 327 326 326 326 326 326 326 325 325 324 323 323 322 322 321 319 319 320 319 317
327 328 327 326 327 325 326 328 330 329 329 328 328 327 325 322 319 316 317 321 323 323 323 324 324 321 320 320 320 320 321 321 322 323 323 321 322 325 327 326 326 326 326 326 326 326 326 325 324 324 324 324 324 323 323 322 322 321 319 318 319 320 318
328 329 327 327 327 327 328 329 329 329 329 329 327 324 321 318 314 313 316 321 323 323 324 324 322 321 320 320 320 320 320 321 322 323 323 321 320 324 327 327 326 326 326 326 326 325 324 323 323 322 322 323 323 323 322 322 322 321 319 318 318 319 319
328 328 327 328 328 329 329 329 328 329 328 327 324 320 317 314 310 310 313 318 322 323 323 322 321 321 321 320 319 319 319 320 321 322 322 321 321 323 326 326 326 326 325 325 323 323 322 321 321 320 320 321 321 322 322 322 321 321 319 318 317 318 318
329 328 327 328 329 329 329 329 329 328 325 324 322 319 316 315 313 311 313 318 322 322 321 321 321 321 321 320 319 319 319 320 321 322 322 321 322 324 326 326 327 325 324 323 322 321 321 320 320 319 319 320 320 321 321 320 320 320 319 318 317 316 316
329 328 328 328 329 328 327 327 325 323 322 323 322 320 318 318 317 315 314 318 321 321 321 322 322 321 320 319 320 320 320 321 321 322 322 321 323 325 326 326 326 324 323 322 322 321 321 320 320 319 319 319 319 319 319 318 319 319 318 317 317 316 315
327 328 328 327 327 327 324 322 321 320 323 325 323 320 320 319 317 317 317 319 319 319 321 322 321 319 319 319 320 320 321 321 322 322 322 322 323 324 326 326 324 323 323 322 321 321 321 321 320 320 320 319 319 319 318 318 318 318 318 318 317 315 314
326 327 327 327 326 326 324 321 321 322 325 326 323 321 321 319 317 318 319 320 320 320 321 321 319 318 318 319 320 320 320 321 322 322 322 322 322 322 323 324 323 322 322 322 321 322 322 321 320 320 320 319 319 319 319 318 318 318 318 317 317 315 314
326 326 327 327 326 326 324 322 322 324 325 325 323 321 320 319 318 318 319 320 320 320 320 318 317 318 319 320 320 320 320 320 320 321 321 322 322 322 322 322 322 322 322 321 321 321 321 321 321 320 320 319 319 319 319 319 319 319 318 317 316 315 314
326 326 327 326 324 324 323 322 323 325 325 324 322 321 320 319 318 318 319 319 320 320 319 318 318 319 320 320 320 320 320 321 320 320 320 321 321 321 321 321 321 321 320 320 321 321 321 321 321 321 320 320 319 319 319 319 319 319 319 319 318 317 316
326 326 326 324 322 323 324 323 324 325 324 322 322 321 321 320 319 318 318 319 319 319 318 318 319 320 320 320 320 319 320 321 322 321 321 321 321 321 321 321 321 321 320 320 320 320 320 320 320 320 320 319 319 319 318 319 319 319 319 319 319 319 318
326 326 326 324 322 323 323 323 324 324 323 322 322 322 321 321 319 318 318 318 319 319 319 319 320 320 320 320 320 320 321 321 322 322 322 322 322 321 321 321 321 321 320 320 320 319 318 318 318 318 318 318 318 317 317 317 317 317 317 317 317 318 318
325 325 326 325 323 323 323 323 323 323 323 323 323 322 321 320 319 318 318 318 319 319 319 320 320 320 320 320 320 321 321 321 321 322 321 321 321 321 321 320 319 319 319 319 319 318 317 317 317 317 317 317 317 317 317 316 316 317 317 317 317 317 317
325 325 325 324 323 323 323 322 322 321 321 322 322 321 321 320 319 319 318 318 319 319 320 321 321 321 320 320 321 321 321 320 320 319 318 316 317 317 316 316 314 314 314 315 316 315 314 314 315 316 317 317 317 317 316 316 316 316 317 317 317 317 318
324 324 324 324 323 323 322 321 320 320 321 321 321 321 321 321 321 321 320 320 320 320 320 320 320 321 320 321 321 320 319 317 316 315 314 313 313 313 313 312 311 310 311 313 313 313 313 315 315 316 317 317 317 317 316 316 316 317 317 318 317 317 317
322 322 322 322 323 322 321 320 319 320 321 321 321 321 321 321 321 320 319 319 318 319 320 320 319 319 320 320 319 316 314 313 311 311 312 312 312 313 313 312 311 311 312 312 313 314 315 316 316 317 317 317 317 317 317 316 317 317 318 318 318 318 318
321 321 320 320 320 320 320 320 319 320 320 321 321 321 321 321 320 317 315 314 314 315 318 318 318 318 318 318 317 315 313 311 310 312 313 312 312 313 313 313 313 313 313 313 313 315 317 317 317 317 318 318 318 318 318 317 317 317 317 318 317 317 317
320 320 320 319 320 320 320 319 319 318 318 318 318 319 318 318 317 315 312 311 311 312 313 313 313 314 315 314 313 313 312 311 310 312 313 313 313 314 314 314 315 315 315 315 316 317 317 317 317 317 317 317 318 318 317 317 317 317 317 317 316 316 316
319 319 320 320 320 320 320 319 319 317 317 317 316 316 316 316 316 314 312 312 313 312 311 310 311 312 313 313 313 313 313 312 313 314 314 314 315 316 316 316 316 316 317 317 317 317 317 317 317 317 316 316 316 316 316 316 316 315 315 315 315 315 315
319 319 319 318 318 318 319 319 318 317 317 316 315 315 316 315 315 315 315 316 316 314 313 313 314 315 315 316 316 316 316 316 316 316 316 316 317 317 317 316 316 316 316 315 315 316 316 315 315 315 315 314 314 314 314 314 314 313 313 313 313 314 315
318 318 318 318 317 317 318 319 318 318 317 315 314 315 315 315 315 315 316 317 317 317 317 317 317 317 317 317 317 317 317 317 317 317 317 317 316 316 316 316 315 315 315 314 315 314 314 314 313 313 313 312 312 312 311 311 311 310 311 311 311 312 313
317 317 318 318 318 317 318 318 318 318 318 316 315 315 315 315 315 315 315 316 316 316 316 315 316 316 316 316 316 316 316 316 316 316 315 314 314 315 315 315 315 314 313 313 314 313 313 313 312 312 311 310 310 309 308 307 306 305 305 306 308 309 311
315 314 315 315 316 316 317 317 317 317 317 317 316 316 315 315 316 316 315 314 314 313 313 312 313 314 314 314 314 313 313 313 313 313 312 312 312 313 313 313 313 312 312 311 311 310 308 307 307 307 306 305 304 303 302 302 301 300 300 301 303 305 307

ECMWFFLT1_850_thetae_087.txt.gz
Theta_e
331 332 332 333 333 333 334 332 332 332 332 331 332 333 331 330 331 330 329 330 331 330 329 328 326 326 327 328 329 329 329 328 328 328 327 328 328 329 329 329 329 328 328 328 327 326 326 326 326 327 327 328 328 327 327 326 326 327 327 327 326 326 325
332 332 333 334 333 333 333 332 332 332 332 332 332 333 332 331 331 331 330 330 330 329 328 327 327 328 328 329 329 329 329 329 329 328 328 328 328 328 329 328 329 328 328 329 328 327 326 325 327 326 327 328 327 327 327 326 327 327 327 327 326 325 325
333 333 334 334 333 333 333 332 332 332 332 333 332 332 331 330 330 331 331 330 329 328 326 327 329 329 329 329 329 329 329 329 329 329 329 329 328 328 328 328 329 328 328 328 328 327 326 326 326 325 326 327 327 327 326 327 327 327 327 326 326 325 325
333 333 334 334 333 332 332 332 332 331 331 332 332 331 330 329 330 330 330 329 328 327 327 329 330 329 328 329 329 329 329 329 329 329 330 329 329 329 328 328 329 328 328 327 327 327 326 326 326 325 326 327 326 326 326 326 327 327 327 326 325 325 325
333 334 334 333 332 331 331 331 331 331 331 332 331 330 329 329 329 329 329 328 327 328 329 330 329 329 328 328 329 329 329 329 329 330 330 329 330 329 328 328 328 328 328 327 327 326 326 326 326 325 326 326 325 326 326 326 327 326 326 326 325 325 325
333 333 333 332 331 331 331 331 330 330 331 331 330 329 330 329 328 327 328 328 328 330 330 329 328 328 328 328 328 328 329 329 329 329 329 330 330 329 328 327 327 328 328 327 327 327 327 327 326 325 326 326 326 326 326 326 326 325 325 325 325 325 324
333 332 332 331 331 331 331 330 329 329 329 330 329 329 329 328 327 328 328 328 329 329 329 328 328 327 327 328 328 328 329 329 328 329 329 330 329 328 328 328 328 328 328 327 327 327 327 327 327 326 326 327 326 325 326 325 325 324 323 324 325 324 324
333 332 332 331 331 331 330 330 329 328 329 329 329 328 328 328 328 329 329 329 329 329 328 328 328 327 327 328 328 329 330 330 328 328 329 329 328 328 328 329 329 329 328 327 327 327 327 327 327 327 326 326 326 325 325 325 324 324 323 324 324 324 324
331 331 332 332 331 330 330 330 329 328 328 328 327 328 329 330 330 329 329 329 330 329 329 329 328 327 327 328 328 328 328 329 327 327 328 328 327 327 328 328 328 329 328 327 327 326 327 327 328 328 327 326 326 325 324 324 324 324 324 324 324 323 323
329 330 331 331 331 330 330 330 329 328 327 327 328 329 329 330 330 329 329 330 330 329 329 329 328 327 327 327 327 326 326 326 325 325 327 326 326 326 327 327 327 328 328 327 327 327 327 327 328 328 327 326 325 324 323 323 323 324 324 324 323 323 322
327 329 331 331 331 330 330 329 329 327 326 327 328 329 329 330 330 329 329 329 329 328 328 328 327 326 326 325 323 323 324 324 324 324 325 325 325 325 326 326 326 327 327 327 327 327 327 327 327 327 327 327 326 325 323 323 323 324 324 324 323 322 321
327 328 330 330 330 330 329 328 328 327 326 328 329 329 329 329 329 329 329 329 328 327 326 326 326 325 324 322 320 320 321 323 324 323 324 324 324 324 324 324 325 325 326 327 327 327 327 326 327 327 327 327 326 326 324 324 323 323 323 323 322 321 320
328 328 329 329 330 330 328 327 328 327 327 329 330 330 329 328 328 328 328 328 327 325 325 325 325 325 324 321 320 319 319 322 324 323 323 323 323 324 324 324 325 325 326 327 327 327 326 326 326 326 327 327 327 326 325 324 323 323 322 322 321 320 319
329 329 328 329 330 329 328 327 326 326 327 329 330 329 328 327 326 327 327 327 327 325 325 325 325 325 324 321 320 321 321 322 324 323 323 323 323 323 324 324 325 325 326 326 326 326 326 326 326 327 327 327 326 326 325 324 323 322 321 320 319 319 318
330 329 329 329 329 329 327 326 326 326 327 328 326 328 328 327 327 327 327 327 328 327 326 326 325 325 323 320 321 323 323 324 324 323 322 323 324 324 324 325 324 325 326 326 326 326 326 326 326 326 327 326 326 326 325 324 323 322 320 319 318 317 317
330 329 328 328 328 328 327 326 326 327 327 325 323 326 328 327 327 327 327 327 327 327 327 326 324 323 321 320 322 323 323 322 321 321 322 323 323 324 325 325 325 325 326 326 327 326 326 326 325 325 326 326 325 324 324 323 323 322 321 320 319 318 317
330 329 328 328 327 327 327 326 327 327 325 324 323 326 328 327 327 327 326 326 326 324 324 323 322 322 321 320 321 321 321 320 321 322 322 321 322 323 325 326 326 326 326 326 326 326 325 325 324 325 325 325 323 323 323 323 323 323 322 322 320 319 318
329 329 329 329 329 329 328 328 327 325 324 324 325 327 328 327 327 325 322 321 321 320 321 322 322 322 321 320 320 320 320 321 321 322 321 320 320 323 325 326 326 326 326 326 326 325 325 324 323 323 323 323 322 322 322 322 323 323 322 322 321 319 318
327 327 328 329 329 329 329 328 328 326 325 326 326 327 327 326 324 320 318 319 320 321 323 323 322 322 321 320 320 320 320 321 321 321 321 321 321 323 326 327 327 327 326 325 324 323 323 322 321 321 321 321 321 321 321 321 322 322 321 321 321 320 318
326 326 326 327 327 328 328 328 328 328 328 327 327 327 326 322 319 318 320 322 323 323 324 323 322 322 321 319 319 319 319 320 321 321 321 322 323 324 326 327 326 327 326 324 322 321 321 320 320 320 319 319 319 319 320 321 321 321 320 321 321 319 317
326 326 327 328 327 326 327 327 327 326 327 327 327 325 321 315 314 318 323 324 323 323 323 322 322 321 320 319 319 319 319 320 321 321 321 323 325 326 327 327 327 327 325 323 321 320 320 320 320 319 319 318 319 319 319 319 319 319 319 319 320 318 317
326 326 327 329 328 327 328 327 325 324 326 327 324 320 317 314 315 319 323 323 323 322 322 321 321 321 320 319 319 320 320 320 321 321 321 323 326 327 327 327 326 325 323 322 321 321 321 320 320 320 319 319 319 319 319 318 318 318 318 318 318 317 317
327 326 327 328 328 327 327 327 325 325 326 325 321 318 318 318 318 319 321 322 322 321 321 321 320 320 319 319 319 321 321 320 321 321 321 323 325 326 326 326 324 323 322 322 321 321 321 321 321 320 320 320 319 319 319 319 318 318 318 318 317 317 317
327 327 327 327 327 326 326 325 325 325 325 324 321 320 320 320 319 319 320 321 322 321 321 321 319 319 319 319 320 320 321 321 321 321 321 321 323 324 324 324 323 322 322 321 321 321 321 321 321 320 320 320 320 319 319 319 318 318 318 318 318 318 317
326 327 327 327 326 325 324 324 324 324 325 324 322 321 320 319 319 320 320 320 320 321 321 319 318 318 319 319 320 320 320 321 321 322 322 322 322 322 322 322 322 321 321 320 320 320 320 320 320 320 320 320 320 319 319 319 318 318 318 318 319 319 318
326 326 326 326 326 325 324 324 324 324 324 324 322 321 320 319 318 319 320 320 320 320 319 318 317 319 319 320 320 319 320 320 320 321 322 322 322 321 321 321 321 321 320 320 320 320 320 319 319 318 318 318 318 318 318 318 317 318 318 318 318 318 318
326 326 326 326 326 325 324 324 324 323 324 324 322 321 321 319 318 318 319 320 320 319 318 317 318 320 320 320 319 319 321 321 321 321 321 321 321 321 321 321 321 320 319 318 318 319 319 318 317 317 317 317 317 317 317 317 317 317 317 317 317 317 317
326 326 326 326 325 324 324 324 324 323 323 324 322 321 321 320 319 318 319 319 319 318 318 318 319 320 320 320 320 319 320 321 322 322 321 320 318 317 317 317 316 315 313 312 313 315 316 315 315 315 316 317 317 317 317 318 318 317 317 317 317 318 318
324 325 325 324 323 322 322 324 324 322 322 323 322 321 321 321 319 318 319 319 319 318 319 319 320 320 320 320 320 320 320 321 322 320 317 316 314 313 313 313 313 312 311 310 311 312 312 312 313 314 316 317 318 318 317 318 318 318 318 318 319 319 319
323 324 324 323 322 322 322 323 323 321 321 322 322 321 320 319 319 319 319 319 319 319 320 320 320 321 320 320 320 320 320 321 320 318 315 313 312 312 312 313 313 313 313 312 313 312 312 312 313 315 317 317 317 317 317 317 317 318 318 319 319 320 319
322 322 322 322 322 322 321 322 322 320 320 320 320 320 319 319 319 319 319 319 319 319 319 319 319 319 319 320 320 320 321 320 318 316 314 313 312 312 312 312 313 313 313 313 313 313 313 312 312 314 316 317 317 318 318 318 318 318 318 318 318 318 318
320 320 320 319 320 320 320 320 320 320 319 318 318 318 318 318 318 318 318 317 316 317 316 316 316 317 318 318 319 319 319 318 315 313 312 312 312 312 312 311 311 312 313 313 313 313 313 313 313 314 315 315 316 317 318 318 318 318 318 318 317 317 316
318 319 319 318 318 319 320 320 320 319 318 318 318 317 316 316 316 316 316 315 314 314 314 313 314 315 316 317 317 316 316 315 313 312 311 311 311 312 312 312 313 314 314 315 315 315 316 316 316 316 316 315 315 316 316 316 316 316 316 315 315 314 314
319 319 318 318 318 319 319 319 318 318 317 317 317 317 316 317 316 316 315 314 312 312 313 313 313 313 314 314 314 314 314 313 313 313 313 313 313 314 315 315 315 316 316 316 316 316 316 316 316 316 316 315 314 314 314 313 313 313 312 312 311 311 310
318 318 318 318 318 318 318 318 317 316 315 315 315 316 316 315 315 315 315 313 311 311 311 311 311 313 314 315 315 315 316 316 316 316 316 316 316 316 317 317 316 316 316 316 315 315 315 315 315 314 314 313 313 312 312 311 310 310 309 309 308 307 306
318 318 318 318 318 318 318 318 317 315 315 315 315 315 315 315 315 315 314 313 312 312 312 311 312 314 316 316 316 316 317 317 317 317 317 317 316 316 316 316 316 315 315 314 314 314 313 313 313 313 312 311 310 310 309 308 306 305 304 303 303 302 301
316 317 317 318 318 318 317 317 316 315 315 315 315 315 315 314 313 313 313 313 313 314 314 314 314 315 315 315 315 315 315 316 316 316 316 315 315 315 314 314 314 313 313 312 312 311 311 310 310 309 308 307 306 305 303 302 301 300 300 299 299 298 298

ECMWFFLT1_850_thetae_093.txt.gz
Theta_e
332 332 332 331 330 329 328 329 330 329 329 329 330 331 331 331 331 332 333 332 330 331 332 331 328 328 328 328 328 329 331 332 331 330 330 330 329 330 330 329 328 327 327 327 327 327 328 328 328 327 328 328 327 327 327 327 328 327 326 326 327 327 326
330 330 331 331 330 329 329 330 331 331 330 329 331 332 332 331 331 332 333 332 331 331 332 330 327 327 329 328 328 329 331 331 331 331 330 330 329 329 330 329 329 328 328 328 328 327 327 328 328 327 327 327 327 327 327 327 327 327 326 327 327 327 326
331 330 330 330 330 330 330 330 331 331 331 330 331 332 332 331 331 331 332 332 332 331 331 329 326 327 329 328 328 330 331 331 330 330 330 330 329 329 329 329 329 328 328 328 327 328 327 327 328 327 327 327 327 327 327 327 327 326 326 327 327 327 327
333 332 331 329 328 329 331 332 332 332 331 330 331 332 332 331 331 331 331 332 332 329 329 328 326 327 329 330 329 330 330 330 329 330 331 330 330 329 329 330 329 329 329 328 328 328 328 327 327 328 327 327 327 327 327 327 327 326 326 327 327 327 326
331 332 332 330 328 327 330 332 333 332 330 330 331 331 331 331 331 331 332 332 329 327 328 329 328 328 330 331 330 329 329 330 330 330 330 330 329 329 330 330 330 329 329 329 329 328 327 327 327 328 327 327 327 327 327 327 326 326 327 327 327 326 326
330 332 332 332 330 329 329 331 333 332 330 330 330 331 331 331 331 331 331 330 328 328 330 330 329 329 331 331 329 327 328 330 330 329 330 330 329 329 329 330 330 329 329 329 329 328 327 327 327 328 327 327 327 327 327 327 327 327 327 327 326 326 326
330 330 331 331 330 330 329 330 332 332 331 331 330 330 331 331 331 330 330 329 328 329 330 330 330 330 330 329 329 329 329 330 330 329 330 329 329 329 329 330 329 329 329 329 328 328 327 326 327 327 327 327 327 327 327 326 327 327 327 326 326 326 325
329 329 330 330 330 330 330 331 332 331 331 331 331 330 331 331 330 330 330 329 330 329 329 330 330 329 327 327 328 331 331 330 330 330 330 330 330 329 329 330 329 328 329 328 328 327 327 327 327 327 327 327 327 326 327 326 326 326 327 326 326 325 324
329 329 329 329 330 330 329 330 332 331 331 331 331 331 331 330 331 330 330 330 330 330 329 330 329 327 327 328 329 330 330 330 330 330 330 329 330 330 329 329 328 328 328 328 328 327 327 327 327 327 327 328 328 327 326 326 326 326 326 326 325 323 323
329 329 328 328 329 329 328 329 331 331 331 331 331 331 330 329 330 330 329 329 329 329 329 328 327 327 328 329 329 330 330 329 329 329 329 329 329 330 329 328 328 328 328 328 328 327 326 327 327 327 328 328 328 328 327 326 326 325 326 325 324 324 323
329 329 328 328 329 328 326 329 331 331 330 331 331 331 330 329 330 330 329 329 328 329 328 327 327 328 329 328 329 330 330 329 329 329 329 329 329 329 329 328 328 328 328 328 328 327 327 327 327 327 327 327 327 328 327 326 326 325 325 325 324 324 323
328 328 328 328 328 327 325 327 330 330 330 331 331 330 330 330 330 330 329 327 327 328 328 327 328 329 328 327 328 330 329 329 329 329 329 328 328 328 328 328 328 328 327 327 327 327 326 326 327 327 327 327 327 327 325 326 326 324 324 324 324 323 322
327 327 327 327 326 326 326 327 328 329 330 330 330 330 330 330 330 329 328 327 328 329 328 328 328 328 327 327 328 329 328 327 328 328 327 326 326 327 328 327 327 327 326 327 327 327 326 326 326 327 327 326 326 326 325 325 325 324 323 323 322 321 321
326 326 326 327 326 326 325 324 325 327 329 330 330 329 328 328 329 328 328 328 329 330 329 328 328 327 326 327 328 328 326 325 326 325 324 325 325 326 326 326 327 326 326 326 326 326 326 327 326 326 326 326 326 326 325 324 325 324 322 320 319 318 317
325 325 325 326 328 327 324 324 325 327 329 329 329 328 327 328 328 329 329 329 329 329 329 329 328 327 326 326 325 323 322 323 324 324 324 324 324 325 325 325 325 325 325 325 325 325 326 327 326 326 326 326 326 325 324 324 325 324 321 319 317 317 316
323 324 325 327 328 327 324 326 329 329 329 329 328 327 328 328 329 329 329 329 329 329 329 328 328 327 325 324 322 321 320 320 322 323 323 323 323 324 324 324 324 324 324 324 325 326 326 326 326 326 326 326 326 325 324 323 324 324 322 319 318 317 317
324 325 326 327 327 327 327 328 329 329 328 328 327 327 329 330 329 330 329 329 329 328 328 327 326 326 325 325 323 321 320 320 320 322 323 323 323 324 324 324 324 324 325 325 325 326 326 326 326 326 326 326 326 325 323 322 323 323 323 321 320 319 318
327 326 326 327 326 326 327 328 329 329 328 325 325 327 329 328 329 330 329 329 328 327 326 326 325 325 325 325 323 321 321 322 322 323 323 323 324 325 325 325 324 324 324 325 326 326 326 326 326 326 326 326 325 324 323 322 322 322 323 323 323 322 321
328 326 326 326 326 326 327 328 329 329 328 325 324 326 328 327 328 328 328 328 327 327 326 325 325 325 324 323 322 321 323 324 323 322 322 323 324 326 325 325 325 325 325 325 326 326 326 326 325 325 325 325 324 323 322 322 322 322 323 323 323 323 323
328 328 327 326 327 327 326 327 328 328 328 326 325 326 327 326 327 327 327 327 326 326 326 326 326 325 324 322 321 322 324 323 322 322 322 322 323 325 325 325 325 325 325 325 326 326 326 325 324 324 324 323 322 322 322 322 321 321 321 322 322 322 322
328 328 328 327 327 327 327 327 327 327 327 326 325 327 328 326 326 327 326 326 326 326 326 326 326 324 323 321 322 323 323 322 322 322 322 322 322 324 325 325 325 325 326 325 324 325 325 323 322 322 321 321 321 320 320 320 320 320 321 321 321 321 321
327 327 328 327 327 327 327 327 326 327 327 326 326 328 328 327 327 326 326 326 326 325 325 324 324 323 321 322 322 322 321 321 322 322 322 322 321 322 325 325 325 325 324 322 321 322 321 321 320 319 319 319 319 319 319 319 319 319 320 320 319 319 319
325 326 327 327 327 327 328 328 327 328 328 328 328 328 327 327 326 326 326 326 325 322 322 323 323 322 322 321 321 321 321 321 321 321 322 322 321 323 325 326 324 324 322 320 319 319 319 319 319 319 319 319 319 319 319 319 318 319 319 318 318 318 318
324 325 325 326 326 327 327 327 328 328 328 328 328 327 326 326 326 326 325 324 322 321 322 323 323 322 321 321 320 320 320 319 320 321 321 321 321 323 326 325 323 321 320 320 320 320 320 320 320 320 320 319 320 319 319 319 319 319 319 318 318 318 318
324 324 325 325 325 325 325 327 328 328 328 328 327 327 326 326 326 325 324 322 322 322 323 323 323 322 321 320 319 319 319 319 320 321 321 321 322 324 325 323 321 320 321 321 321 320 320 320 320 320 320 320 320 320 320 320 319 319 319 319 319 318 318
323 324 324 324 324 324 325 326 327 327 327 327 327 326 325 324 324 323 322 322 323 323 323 323 323 322 321 320 319 319 319 319 320 321 321 322 323 324 323 322 320 321 321 320 320 320 320 320 319 319 318 318 317 318 318 318 318 318 318 318 318 318 318
321 322 323 323 323 323 324 325 326 327 327 326 326 324 323 322 322 322 322 322 322 322 323 323 322 321 321 320 319 320 320 320 320 321 322 323 323 322 321 321 321 321 320 320 319 319 318 318 316 316 314 314 314 314 315 316 316 317 317 317 317 317 317
319 319 320 322 322 323 324 324 324 324 324 325 324 322 321 321 322 323 323 322 322 322 322 322 321 320 321 320 319 320 321 321 321 321 322 323 322 321 321 321 320 319 317 317 316 316 315 314 313 313 313 313 313 313 314 315 316 317 317 318 318 318 318
317 317 318 320 321 322 324 324 324 323 324 323 322 321 320 320 320 322 322 322 322 322 321 321 321 320 319 319 319 320 321 321 321 322 322 322 321 321 321 319 316 314 313 313 313 313 313 313 313 313 313 313 313 313 313 315 316 317 317 318 318 318 318
317 317 318 319 321 321 322 322 322 321 321 319 319 320 320 317 318 320 321 321 321 321 321 321 321 318 318 318 319 320 321 321 321 322 322 321 321 320 318 314 312 312 312 312 312 312 313 313 313 313 313 313 313 313 314 314 316 316 317 318 318 318 318
317 317 317 319 320 320 320 320 319 319 318 316 317 319 319 318 318 319 319 320 320 321 321 320 319 318 318 319 319 320 321 321 321 321 321 321 319 317 315 313 312 312 312 312 312 313 313 312 312 313 313 313 313 314 314 315 316 316 316 317 317 317 316
317 317 317 318 319 319 319 319 318 318 317 316 316 318 319 319 319 318 318 318 319 319 320 319 319 319 319 320 320 319 319 319 318 318 318 317 315 314 313 312 313 312 312 312 312 312 312 312 312 313 313 313 314 315 315 315 316 316 315 315 315 315 314
316 316 316 316 317 317 317 317 317 317 316 316 317 317 318 318 318 318 318 318 319 319 319 319 319 319 319 319 319 317 316 316 315 314 314 314 313 313 312 312 313 312 312 311 311 311 312 312 313 314 315 315 316 316 316 315 315 315 314 314 313 313 312
315 315 315 315 315 315 315 316 316 316 315 315 316 316 316 316 317 317 317 317 318 318 318 317 317 317 317 318 317 316 315 315 314 314 314 313 313 313 313 313 313 313 312 313 314 314 314 315 315 315 315 315 315 315 315 314 313 312 311 310 309 308 306
314 314 313 314 314 314 314 314 315 315 314 314 315 315 315 315 315 315 314 314 315 315 315 315 315 315 315 315 315 314 314 314 314 315 314 314 314 314 315 315 315 315 315 315 316 316 315 315 315 315 314 314 314 313 312 311 309 307 305 304 303 302 301
313 313 313 313 313 313 313 313 313 313 313 313 313 314 314 313 313 313 313 313 313 314 314 314 313 314 314 314 313 313 313 313 314 314 314 315 316 315 315 315 316 316 316 315 315 315 314 314 313 312 311 310 309 308 306 305 303 301 301 300 299 299 299
311 311 311 311 312 311 311 311 311 311 311 311 312 312 312 312 312 312 312 312 312 312 313 313 313 313 313 312 313 313 313 312 312 311 312 313 314 314 314 314 315 316 315 314 313 312 310 309 307 306 305 304 303 302 301 300 299 299 299 298 298 298 298

ECMWFFLT1_850_thetae_096.txt.gz
Theta_e
333 333 333 333 332 332 332 332 331 331 331 332 333 332 333 333 333 333 333 333 333 333 332 332 332 331 330 330 331 330 330 330 329 328 329 330 330 331 332 331 330 329 329 331 331 331 331 330 331 331 330 330 331 330 330 330 330 330 329 328 328 329 328
334 334 333 333 332 331 330 330 330 330 330 331 332 333 333 333 333 333 333 333 333 333 332 332 332 332 331 331 331 331 330 330 329 329 329 330 331 331 331 332 331 330 330 331 331 331 331 330 330 330 330 330 330 330 330 329 329 329 329 329 329 329 328
333 333 333 333 333 332 331 331 329 329 329 330 332 333 333 333 333 333 333 333 333 333 332 332 332 333 332 331 330 329 329 329 328 329 330 330 330 330 331 331 331 330 331 331 331 331 331 330 330 330 330 331 330 330 329 329 330 329 329 329 328 328 328
332 332 333 332 333 332 331 331 331 329 328 329 331 332 333 332 333 333 333 333 333 333 332 332 333 333 331 330 329 328 327 328 328 329 330 330 330 330 329 330 330 330 331 331 331 331 330 330 330 330 330 330 330 330 329 329 330 329 329 329 329 329 329
331 331 331 331 332 332 331 330 330 329 328 329 330 331 331 332 333 333 332 332 332 333 333 333 333 332 330 329 329 328 327 327 328 329 330 330 330 329 328 330 330 330 330 330 330 330 330 330 330 330 330 330 330 330 330 330 330 329 328 329 328 329 329
331 331 331 331 331 330 330 329 329 329 329 330 329 330 331 332 333 333 332 332 332 332 332 333 333 332 330 330 329 328 327 327 327 329 329 330 330 329 329 330 330 329 329 329 329 329 330 330 330 330 330 330 330 329 329 329 329 329 328 328 328 328 328
330 330 330 331 330 329 329 327 327 328 329 329 329 329 331 332 332 332 332 332 332 331 331 331 332 331 330 330 329 328 328 327 327 329 329 330 330 329 330 331 330 329 329 329 329 330 331 330 330 330 330 330 330 329 329 329 329 329 329 328 327 328 327
329 330 329 329 329 329 328 326 326 327 327 327 328 329 331 332 332 332 332 332 332 332 330 330 330 331 330 330 329 329 328 327 326 328 329 330 329 329 329 330 330 329 329 329 330 330 330 330 330 330 330 330 330 329 329 328 329 329 328 328 327 327 327
328 329 330 330 328 328 328 326 325 325 325 326 327 329 330 331 331 332 332 332 332 331 329 328 329 330 330 330 329 329 327 326 326 328 329 329 328 328 329 330 329 329 328 329 330 330 330 330 330 330 330 329 329 329 329 329 329 328 328 328 328 327 326
327 329 330 330 329 328 327 327 326 325 324 324 326 328 329 330 331 331 331 331 331 330 329 329 329 330 330 329 329 327 326 327 328 330 329 328 328 328 329 330 328 328 328 330 330 331 330 330 330 330 329 329 328 328 329 328 328 328 328 328 327 327 325
328 329 330 330 330 330 328 327 327 325 323 324 325 327 328 330 330 331 331 331 330 330 330 330 330 330 330 329 327 326 327 329 330 329 328 329 330 329 329 329 329 329 330 330 331 331 331 331 330 330 329 329 328 328 327 328 328 328 328 328 327 327 325
327 328 329 330 330 330 330 329 329 327 324 324 327 328 328 328 328 329 331 331 330 330 331 331 330 329 329 329 329 329 330 330 329 328 329 329 330 328 328 329 327 328 330 329 330 331 331 331 331 330 330 329 329 329 328 327 326 326 328 328 327 327 326
327 327 328 329 330 330 330 330 329 328 326 325 328 328 327 328 328 329 331 330 330 330 331 330 329 327 328 330 331 330 330 329 328 328 328 329 328 327 328 328 326 329 330 330 330 331 331 331 331 330 329 329 329 329 328 328 326 326 328 328 327 327 325
325 327 327 328 329 329 329 329 329 328 326 326 328 327 326 327 327 329 330 329 330 330 329 330 329 328 329 330 331 331 330 328 327 327 328 330 329 329 329 329 328 330 331 330 330 331 330 331 330 330 329 329 329 329 329 328 326 327 328 327 327 325 322
323 326 327 327 327 329 330 330 330 329 327 328 328 327 327 327 327 329 329 329 330 330 329 330 330 330 330 329 330 331 329 326 326 328 330 331 331 330 330 330 330 331 331 330 331 330 329 330 330 329 329 328 328 329 329 328 325 325 325 325 325 323 318
322 325 327 327 327 329 330 330 330 329 328 329 329 328 328 327 327 328 328 328 329 329 330 331 329 330 329 328 328 329 328 326 327 330 331 331 331 330 330 330 330 331 331 330 330 329 329 329 328 328 328 328 328 328 328 328 326 324 324 323 324 323 319
324 326 328 327 327 328 329 329 330 330 329 330 329 328 328 326 325 326 327 327 326 327 330 330 329 329 329 327 327 328 328 327 328 329 328 328 329 329 330 330 330 330 330 330 330 329 329 329 328 328 328 328 328 328 328 328 327 324 323 323 323 323 322
327 327 327 328 328 328 329 330 330 330 330 330 329 328 327 325 326 328 329 327 325 326 329 329 328 329 328 328 327 326 326 325 325 326 326 326 326 327 328 329 330 330 329 330 330 329 329 329 328 327 328 327 327 329 328 327 327 325 324 324 324 323 323
328 327 327 328 328 328 329 329 330 330 330 329 328 328 327 326 327 329 329 329 327 326 327 327 328 329 328 328 327 325 324 322 322 324 325 325 325 325 327 328 329 329 329 330 331 329 329 328 328 328 328 327 327 327 327 327 327 327 325 324 324 324 324
328 328 327 328 328 329 329 329 330 330 330 329 327 326 326 327 328 328 329 329 327 325 326 327 328 328 328 327 326 323 321 320 321 324 326 326 324 323 326 328 328 329 329 330 329 328 328 329 328 328 328 328 327 326 327 327 327 327 326 325 325 325 325
327 327 328 327 327 328 329 328 328 329 330 329 327 326 327 328 329 328 328 328 326 325 326 327 326 327 327 325 323 319 319 321 324 325 327 326 323 323 327 329 329 329 329 329 328 327 328 328 328 328 328 328 328 327 327 327 326 326 325 325 325 324 325
325 326 327 327 327 327 327 327 328 328 329 330 328 327 328 329 329 328 327 327 326 325 326 327 325 325 326 324 319 317 320 323 324 325 325 325 323 324 327 329 328 327 327 327 326 326 327 327 327 328 327 326 326 326 326 327 326 325 325 325 324 325 325
324 325 325 326 326 327 327 327 327 328 328 329 329 327 327 328 328 327 326 325 325 325 326 325 324 324 324 322 319 319 322 323 323 323 323 322 321 323 325 326 325 325 325 325 325 325 325 324 324 325 324 323 323 325 326 326 325 324 324 324 323 323 323
324 324 324 324 325 326 326 326 327 327 326 327 328 327 326 327 328 327 325 325 324 324 324 324 323 323 321 320 321 321 322 322 322 322 322 321 319 320 323 325 326 325 324 323 323 324 323 322 320 321 320 320 320 322 324 325 324 324 323 322 322 322 321
323 323 324 324 324 324 325 325 327 327 326 327 328 327 327 327 328 327 325 324 322 322 323 323 323 323 322 322 322 321 321 321 321 322 323 322 320 319 322 325 326 324 322 320 321 321 320 320 319 319 319 318 319 319 320 322 323 323 323 322 322 322 322
321 322 322 323 323 323 324 324 325 326 326 326 327 327 326 326 327 326 324 322 321 321 323 323 323 322 321 321 321 320 320 320 321 322 322 322 321 321 323 326 324 321 320 319 320 320 319 320 320 320 320 320 320 320 320 320 321 321 322 322 323 323 322
320 321 322 322 323 323 323 323 323 323 323 324 325 325 325 325 325 323 322 323 322 323 323 324 323 321 320 320 319 319 320 320 320 322 321 321 322 323 324 324 321 320 320 320 320 320 320 320 320 319 319 318 318 318 317 317 317 317 318 320 321 321 319
320 320 321 321 321 322 322 322 322 321 321 322 322 322 321 322 323 322 321 322 322 323 323 323 322 321 320 320 319 319 320 320 320 321 321 322 324 324 322 321 320 320 320 320 320 319 319 318 317 316 315 314 314 314 314 314 314 315 316 316 318 318 318
319 319 319 320 320 320 320 320 319 319 320 321 321 320 321 322 322 322 321 321 321 322 322 322 321 320 321 321 320 319 320 321 321 321 321 323 324 323 320 319 320 320 319 318 317 317 316 315 315 314 314 313 313 313 313 313 313 314 315 316 317 317 317
318 319 319 320 319 319 319 318 317 317 318 320 321 321 320 320 319 317 317 319 321 321 320 321 321 320 319 319 319 319 320 321 322 322 322 322 323 321 319 319 319 319 317 315 314 314 314 315 316 315 314 313 313 313 313 313 313 314 315 315 316 316 316
317 317 318 319 319 318 318 317 317 317 318 319 320 319 316 315 316 316 315 317 320 320 318 320 321 320 318 318 319 319 320 321 322 322 321 321 321 319 318 319 318 316 314 313 313 313 312 314 316 316 314 314 314 313 313 314 314 315 315 315 315 316 316
315 315 316 317 317 317 317 316 316 316 317 318 317 316 316 315 316 317 318 319 320 319 318 319 320 319 318 318 319 320 321 320 320 320 319 319 320 319 317 318 317 314 312 312 312 312 312 313 315 315 314 315 316 314 314 315 315 316 316 315 315 315 315
314 314 314 315 315 315 315 315 315 316 316 316 316 317 317 316 314 316 318 319 319 319 319 319 319 318 318 319 319 319 318 317 317 317 317 317 317 317 316 315 314 312 312 312 312 312 312 312 314 315 316 317 316 316 316 316 316 316 316 315 315 314 314
313 313 313 313 313 314 314 314 314 314 315 316 316 316 317 316 315 316 317 317 318 318 318 318 318 319 319 319 318 317 316 315 314 314 315 314 314 314 314 313 312 312 312 313 312 313 313 313 314 316 316 316 316 316 316 316 315 315 314 312 311 310 310
312 312 312 312 312 312 312 312 313 313 313 313 314 314 314 314 314 315 315 315 316 316 316 316 316 317 317 317 316 315 314 315 314 314 314 313 312 313 313 312 313 313 313 314 314 315 315 315 315 315 315 315 315 314 314 313 312 311 308 306 306 306 307
309 310 310 311 311 311 311 311 311 311 311 311 311 311 311 311 312 312 312 313 313 314 314 315 314 315 314 314 314 314 314 314 314 314 314 314 314 314 314 315 315 315 315 315 315 315 314 314 313 313 313 312 311 310 309 308 307 306 304 302 302 302 304
307 306 306 307 307 308 308 309 309 309 309 309 309 308 308 309 309 310 310 311 312 313 314 314 315 315 314 313 313 313 313 313 312 313 312 313 314 314 314 314 314 314 314 314 314 313 311 310 309 309 308 307 306 304 303 301 301 301 300 300 300 299 300

ECMWFFLT1_850_thetae_102.txt.gz
Theta_e
336 336 336 336 337 337 337 337 337 336 335 335 334 334 333 331 330 330 329 329 330 330 330 331 330 329 329 329 328 326 328 328 329 329 328 328 329 330 331 332 331 331 331 330 329 329 330 331 331 330 330 330 330 329 329 329 329 330 330 329 329 328 328
336 336 336 336 336 336 336 337 337 336 335 335 334 334 333 333 332 332 331 332 332 331 331 331 331 331 330 331 328 326 328 329 329 329 328 328 329 330 331 331 331 331 331 330 329 329 329 330 331 331 330 329 329 329 330 329 329 329 330 329 329 328 328
336 336 335 335 336 336 336 336 336 336 335 334 334 334 333 334 333 333 332 333 333 333 332 332 332 332 331 331 330 328 329 330 329 329 328 328 330 330 330 330 329 329 329 329 329 329 329 329 330 330 330 329 329 330 330 329 329 329 329 329 329 328 328
334 333 332 332 333 333 333 334 335 335 335 334 334 333 332 333 334 333 333 333 333 333 333 332 332 332 332 332 332 331 331 330 329 329 328 329 329 330 329 329 328 327 327 327 327 327 328 328 329 329 330 330 330 330 330 329 329 329 329 329 329 328 328
332 331 331 330 330 330 331 332 333 334 334 334 334 333 332 333 333 333 332 332 333 333 333 333 332 332 332 332 332 332 331 331 330 330 329 329 329 328 328 327 328 329 328 327 326 327 327 327 329 330 329 331 331 330 330 329 329 330 329 329 329 329 328
332 332 332 332 331 331 332 332 332 333 333 333 333 333 333 334 333 333 332 332 332 333 333 333 332 332 332 331 331 331 331 331 331 331 330 330 330 328 327 327 329 329 329 328 327 327 327 327 329 330 329 330 331 331 331 330 329 330 329 329 329 329 329
332 332 332 331 331 332 331 331 332 333 333 333 332 332 333 333 332 332 332 331 331 333 333 333 332 332 331 331 331 332 332 331 331 331 331 330 330 329 328 328 329 329 328 328 328 327 328 328 328 328 328 329 330 330 330 330 329 330 330 329 329 329 329
331 331 330 330 331 331 331 331 332 333 333 332 332 331 332 332 331 331 331 330 331 332 332 333 333 332 331 331 332 333 332 332 332 331 331 331 331 330 329 329 329 329 327 327 327 328 328 329 329 328 328 329 329 329 329 330 329 330 330 329 329 329 329
331 330 330 330 330 331 331 332 332 331 331 331 331 331 331 331 331 331 330 330 330 331 331 332 332 332 332 331 332 333 332 333 332 332 332 332 332 330 329 330 330 329 328 327 327 328 328 329 329 328 327 329 329 328 329 329 330 330 330 329 329 329 329
330 330 330 331 331 331 332 331 331 330 330 329 329 330 330 330 330 330 330 328 328 330 331 332 332 332 332 331 331 332 332 332 332 332 332 331 331 330 329 330 330 328 327 327 327 328 329 328 329 328 328 329 329 328 329 329 329 330 329 329 329 329 329
329 329 330 331 331 331 331 331 330 328 327 326 327 328 329 329 330 330 329 329 329 330 331 331 332 332 331 331 331 332 332 332 332 331 330 329 329 329 329 329 328 327 327 327 327 328 329 328 329 329 329 329 329 328 328 329 329 330 329 329 329 328 329
327 328 329 329 330 330 329 329 328 326 325 325 325 327 328 329 329 329 329 329 330 330 331 332 331 331 331 331 331 332 332 332 331 330 329 328 328 327 328 327 326 327 328 327 326 327 328 328 328 329 329 329 329 328 329 328 329 329 329 329 329 328 328
326 326 327 328 328 328 329 328 327 327 326 325 325 327 328 328 328 328 329 329 330 330 331 331 331 331 331 331 331 331 332 331 330 329 329 327 327 326 326 326 326 327 328 327 326 327 328 328 328 329 329 329 329 329 329 327 327 329 329 329 329 328 328
324 325 327 328 328 328 328 328 328 327 326 326 326 326 325 325 325 326 327 328 330 330 330 331 331 330 329 330 330 330 330 330 329 329 329 328 327 327 327 328 328 328 327 326 326 327 327 327 328 329 329 330 329 329 328 327 327 328 328 328 328 328 328
324 326 327 328 328 329 328 327 328 327 326 325 326 326 325 324 324 325 325 327 330 331 330 330 330 328 329 329 328 327 326 325 325 325 326 327 327 328 329 329 328 328 327 325 326 327 326 326 328 329 330 330 329 329 329 328 328 327 327 327 327 328 328
325 327 327 327 328 328 328 327 327 327 327 326 327 327 326 324 323 324 324 326 330 330 329 329 329 329 329 328 328 327 326 325 324 324 326 327 327 328 329 329 329 329 328 327 327 327 326 327 329 330 330 329 328 329 328 329 328 327 326 327 327 327 327
326 326 326 326 327 328 327 327 327 327 327 327 327 327 325 324 324 325 325 326 329 330 329 329 329 330 329 328 328 328 327 327 327 327 328 328 328 328 328 329 329 329 328 327 328 327 327 328 328 329 330 328 328 328 328 328 328 326 326 326 327 327 327
326 326 326 326 327 328 327 327 327 327 326 326 327 327 326 325 325 326 326 326 327 328 328 328 329 329 329 327 327 326 327 327 327 327 328 328 329 328 328 329 329 328 329 328 327 327 328 328 328 329 330 328 327 328 327 327 328 327 326 326 327 326 325
324 325 325 325 325 327 327 327 327 326 326 326 328 327 326 326 326 326 326 326 325 326 328 328 328 329 329 327 326 326 327 326 325 326 326 327 328 327 328 328 329 329 329 328 328 328 328 329 328 328 328 328 327 328 327 327 327 326 327 326 326 325 324
323 323 323 323 324 325 326 326 326 326 326 327 328 328 327 326 326 327 327 327 327 327 327 327 327 328 329 328 326 326 325 325 325 325 325 325 326 327 328 328 328 328 328 327 328 329 328 329 328 327 327 328 328 328 327 326 325 325 326 325 324 324 323
322 322 323 323 323 324 325 325 326 325 326 327 328 328 327 326 326 327 327 327 327 327 327 327 326 326 328 328 326 325 326 325 325 325 325 325 326 327 328 328 328 327 327 327 328 328 327 328 328 327 328 328 327 327 327 326 325 324 325 324 324 324 323
321 322 323 323 324 324 324 325 325 325 326 327 327 327 328 327 327 327 327 326 326 327 327 327 326 325 326 327 326 326 326 326 326 325 326 326 327 327 327 328 328 327 328 328 327 326 326 326 327 328 328 327 327 326 326 326 325 324 324 324 324 324 323
320 322 322 323 322 322 322 323 324 325 326 326 326 326 327 327 326 326 327 327 327 327 326 326 327 326 326 325 325 325 325 325 326 325 326 326 327 327 327 327 327 327 328 328 327 327 326 326 327 328 327 327 326 325 326 326 324 324 324 324 324 324 324
320 321 321 321 321 321 321 321 322 323 324 324 325 325 325 325 325 325 326 326 327 327 326 325 325 326 325 324 324 324 324 325 325 325 325 325 325 326 327 326 326 326 328 328 327 328 328 327 328 327 326 325 325 325 326 326 324 324 323 323 324 324 323
318 319 319 320 320 320 320 320 321 321 322 322 322 323 324 324 324 323 324 324 324 324 324 324 324 324 324 324 324 324 324 324 324 323 324 325 324 325 326 326 325 325 325 327 327 327 327 326 326 326 325 324 324 324 325 325 324 324 323 323 323 322 322
316 317 318 318 319 319 319 320 320 320 320 320 320 321 321 322 322 322 321 321 322 322 322 323 323 322 322 322 323 323 323 322 323 322 323 324 324 324 326 326 324 323 323 325 326 326 325 325 326 326 326 325 324 323 323 324 324 323 322 322 323 322 322
315 316 317 318 318 319 318 319 320 320 320 320 319 319 319 320 321 320 319 318 319 321 322 322 322 321 321 320 321 321 321 322 322 323 323 324 324 325 325 324 323 321 322 324 324 324 325 324 324 325 325 325 325 325 324 323 323 323 323 323 323 322 322
315 316 316 317 318 318 318 318 318 319 319 318 318 317 316 317 318 318 317 317 318 320 321 320 320 319 319 320 320 320 320 320 322 322 323 323 324 324 324 324 323 322 321 321 321 321 322 323 322 323 323 323 324 324 323 322 322 322 322 323 322 321 321
314 315 316 316 316 317 318 317 317 317 317 317 317 317 316 316 316 317 317 317 317 319 319 319 318 317 317 319 320 319 319 318 320 321 322 323 324 324 323 323 323 322 321 320 321 322 322 322 323 322 320 321 322 321 320 319 320 320 320 320 321 321 322
314 314 315 315 315 315 316 316 316 316 316 316 316 316 316 316 316 317 317 316 316 317 317 318 319 318 317 318 318 317 317 317 318 319 320 321 322 323 323 323 324 322 321 321 323 323 322 322 322 320 317 317 318 317 317 317 317 317 318 319 319 320 320
313 313 314 315 315 315 315 315 316 316 315 315 315 315 316 316 316 317 317 315 314 314 314 315 317 318 318 318 318 316 315 315 316 317 317 318 319 321 322 322 322 321 321 321 322 323 322 322 322 320 317 315 314 314 314 314 314 316 317 318 317 318 318
313 313 313 314 314 314 314 314 314 315 315 315 315 315 315 315 315 316 317 316 315 314 313 313 314 316 317 318 318 317 316 316 316 316 316 316 316 318 319 319 319 318 319 319 320 320 320 319 320 320 319 316 314 313 315 316 316 316 317 317 317 317 317
311 311 312 312 312 312 313 313 313 313 313 313 314 314 314 314 314 314 315 315 315 315 315 314 314 315 316 316 316 315 315 315 315 316 316 316 315 316 317 317 317 316 316 316 316 316 315 315 316 319 319 319 316 315 315 317 317 316 316 316 317 316 316
309 309 309 309 310 310 310 310 311 311 311 311 311 312 312 312 313 313 313 313 314 314 315 315 314 314 315 315 315 314 314 314 314 315 315 315 315 316 316 316 315 314 314 313 313 313 313 313 314 315 316 317 317 316 315 316 317 317 316 316 316 315 315
306 306 307 307 308 308 308 308 308 308 308 308 308 308 308 309 309 310 311 312 312 313 313 314 314 314 314 314 314 313 314 314 313 313 314 314 314 315 315 314 313 312 313 313 313 313 314 314 314 314 315 316 316 316 316 315 316 316 315 314 313 312 311
302 302 302 304 305 305 305 305 305 305 304 305 305 304 304 305 305 305 306 308 309 310 311 312 312 312 312 312 311 311 311 312 312 313 313 313 313 313 313 313 313 312 312 312 313 313 313 314 314 315 315 315 315 315 315 314 313 312 311 311 310 309 309
302 300 298 298 299 300 301 302 303 303 302 302 301 301 300 300 301 301 301 301 303 305 307 308 309 309 309 309 308 308 308 309 310 311 312 313 313 313 312 312 311 310 310 310 311 311 311 312 312 312 312 312 312 312 312 311 309 308 308 308 308 307 308

ECMWFFLT1_850_thetae_105.txt.gz
Theta_e
336 336 336 335 335 335 335 336 336 335 334 333 333 333 334 334 333 333 332 331 330 331 330 330 329 330 330 330 330 330 329 330 332 331 329 327 325 325 327 329 329 330 330 330 330 330 330 330 330 331 332 331 331 331 331 331 330 329 329 329 329 329 329
334 334 334 334 334 334 334 335 335 334 334 333 333 334 334 334 333 333 333 331 331 331 331 331 331 331 331 331 332 331 330 330 331 330 330 328 326 325 326 329 329 330 330 330 331 331 330 330 330 330 331 331 331 331 331 330 330 329 329 329 329 329 329
332 332 332 332 332 331 331 331 332 332 332 332 333 333 333 333 333 333 333 332 332 333 333 332 331 331 331 332 332 331 331 330 331 330 329 328 328 329 328 329 329 330 331 331 331 331 330 329 329 329 330 330 330 330 331 330 329 329 329 329 329 329 329
332 332 332 332 332 331 330 330 330 331 331 331 332 332 332 332 332 333 332 333 333 333 333 333 333 332 332 332 332 331 331 331 331 329 328 328 329 331 330 328 329 330 330 331 331 330 329 329 329 329 329 330 330 330 330 330 329 329 329 329 329 329 329
332 332 332 332 331 331 330 329 330 330 330 331 331 331 331 331 331 331 331 332 332 332 332 332 332 332 332 332 331 331 332 331 331 330 330 330 330 331 330 328 329 330 330 331 330 329 328 327 328 328 328 329 330 330 330 329 330 330 329 329 329 329 329
330 331 331 331 330 329 329 329 330 330 330 330 331 330 329 329 329 329 330 331 331 332 332 331 331 330 330 331 331 332 332 331 331 331 331 331 330 329 329 328 329 330 330 330 329 328 327 326 327 327 327 328 329 330 330 330 331 330 329 329 329 329 329
329 330 330 330 329 329 330 330 330 331 330 330 329 327 326 325 325 326 327 329 330 330 331 331 331 330 330 331 331 331 332 331 331 331 331 331 330 329 329 329 329 329 329 329 328 327 327 327 327 326 326 328 329 329 330 331 330 330 329 329 329 329 329
328 330 330 329 329 330 330 330 330 330 329 328 326 325 323 323 324 324 326 327 329 330 330 330 330 329 330 331 331 332 332 331 331 330 330 331 331 330 329 329 329 328 327 328 328 328 328 327 327 326 326 328 329 330 330 331 330 330 329 328 329 329 329
327 328 329 328 329 329 329 329 329 328 327 326 325 324 323 324 325 325 327 328 329 330 330 329 328 327 328 329 331 331 332 332 331 330 330 331 332 332 330 329 329 328 327 328 328 328 328 327 327 327 327 329 329 329 330 330 330 330 329 328 328 329 329
325 326 327 328 328 328 328 328 328 327 327 326 324 323 323 324 324 326 328 329 329 329 329 328 327 327 327 328 330 331 331 331 331 330 330 331 331 331 331 330 329 329 328 328 328 326 326 327 328 329 329 329 328 328 329 330 330 329 329 329 329 328 329
323 324 325 327 327 328 327 327 327 327 326 326 324 323 324 324 324 324 326 328 328 328 328 328 328 328 328 328 329 331 331 331 331 330 330 331 331 331 331 331 330 330 329 329 328 326 325 327 329 330 330 329 328 328 328 329 328 329 329 329 329 328 329
324 325 326 327 327 328 328 328 327 326 326 326 324 324 324 324 323 323 325 327 327 327 327 328 328 329 328 328 329 330 331 331 331 331 330 331 331 331 331 331 330 330 330 330 328 326 326 328 330 330 330 329 328 328 328 328 328 329 329 329 329 328 329
325 326 326 327 327 328 328 328 327 326 326 326 324 325 324 323 324 324 325 326 326 326 328 328 328 329 330 330 330 329 330 331 330 331 331 331 331 330 330 330 330 330 330 329 326 326 328 329 330 331 330 330 329 328 328 328 329 329 329 329 329 329 329
325 326 326 326 327 327 327 328 327 326 326 325 325 325 324 324 324 324 325 326 326 326 328 329 328 329 330 329 329 329 330 331 330 330 330 330 328 326 325 326 327 328 330 329 328 328 329 329 330 331 330 329 328 328 328 328 328 329 328 328 328 328 328
324 324 324 324 325 326 327 327 327 326 326 326 326 326 324 324 325 325 326 326 327 327 327 327 327 327 327 327 327 328 327 326 326 326 327 328 326 324 324 324 323 325 327 330 330 330 330 330 330 330 329 328 328 328 328 327 327 328 328 328 328 328 328
323 323 323 323 323 324 326 326 326 326 326 327 327 326 325 325 325 325 326 325 326 326 325 326 326 326 326 326 327 328 326 324 324 323 323 323 323 323 324 325 325 326 327 329 331 330 329 329 329 328 328 329 328 328 328 327 327 327 327 328 329 328 328
322 322 322 323 323 323 324 325 326 326 326 327 328 327 326 326 326 326 325 324 325 324 323 323 325 326 326 326 327 329 328 327 327 327 325 324 324 324 323 322 324 327 327 328 329 329 328 328 328 328 328 328 328 328 328 328 327 327 327 328 328 328 328
321 321 323 323 323 322 323 324 325 325 325 327 328 327 326 326 326 326 326 326 326 325 324 323 325 326 326 326 327 328 328 328 328 328 328 328 329 329 327 325 325 326 327 328 328 328 328 328 328 328 329 329 328 328 328 328 328 327 327 328 328 327 328
321 322 323 323 323 323 324 324 325 325 325 326 327 327 326 326 326 326 326 327 326 326 326 326 326 326 327 326 326 327 328 328 328 327 328 328 329 329 328 327 327 328 328 328 328 328 328 327 327 328 329 329 328 328 328 329 328 328 328 327 327 327 327
321 322 323 323 323 323 323 324 324 324 325 325 326 326 326 326 326 326 326 327 327 327 327 327 327 327 327 326 326 326 327 326 326 326 326 326 327 328 327 327 328 328 327 327 328 328 329 327 326 327 329 329 328 327 327 328 328 328 328 327 326 327 327
321 321 321 321 321 321 322 323 323 323 323 324 324 325 325 325 326 326 326 327 327 327 327 326 326 326 326 326 326 326 326 325 326 326 326 326 326 327 327 327 328 328 327 328 328 328 328 328 327 328 328 328 328 328 327 327 327 327 327 326 326 327 326
320 320 320 320 320 320 320 321 322 322 322 323 323 324 324 324 325 325 326 326 326 327 326 326 326 325 325 325 325 324 325 325 325 325 326 327 327 327 327 327 327 328 328 328 328 328 328 328 327 328 328 327 327 327 327 326 325 326 327 326 326 325 325
319 319 319 319 319 319 319 320 321 321 321 321 322 322 323 323 323 324 324 324 324 325 325 325 325 324 324 324 324 324 324 325 325 324 325 325 326 326 327 326 326 327 327 328 328 327 328 328 327 326 327 327 327 327 327 326 324 326 326 325 325 324 324
318 317 317 317 318 318 319 319 320 320 320 320 320 321 321 321 322 322 323 323 323 324 324 323 323 323 323 323 323 323 323 323 323 323 323 324 324 325 326 326 325 326 326 327 327 327 327 326 326 326 327 327 326 325 326 326 325 325 326 325 324 324 323
317 316 316 317 318 318 319 319 318 318 318 319 319 319 319 319 319 320 321 322 322 321 321 321 321 321 321 321 322 322 322 322 322 322 323 323 323 324 325 325 325 325 326 326 326 327 328 327 326 327 327 326 324 324 325 326 325 325 325 324 324 323 323
316 316 316 317 318 318 318 318 317 317 316 317 317 317 317 317 317 317 319 320 320 320 319 319 319 320 320 320 320 320 320 320 321 322 322 322 323 324 325 324 323 324 325 326 325 326 327 326 326 327 326 325 325 325 326 327 325 324 323 323 323 323 323
315 315 316 316 316 317 317 317 317 316 316 316 316 316 316 316 316 316 318 319 319 319 319 318 318 318 319 319 318 318 318 318 318 320 321 323 323 323 323 323 322 323 323 324 324 324 324 325 326 327 326 325 325 326 326 326 325 324 322 322 323 323 322
315 315 315 315 316 316 316 316 316 315 316 316 316 316 316 316 315 315 316 317 317 318 318 318 318 318 318 318 317 316 316 316 316 317 319 321 322 323 322 322 322 322 321 321 322 322 322 324 325 325 324 325 325 325 325 325 324 323 322 322 322 322 322
315 315 315 316 316 315 315 315 314 315 315 315 315 315 316 316 315 314 314 314 315 315 316 317 317 317 317 317 316 315 314 314 313 314 316 318 319 321 322 322 322 321 320 320 321 322 322 322 322 322 323 324 324 324 323 323 323 322 321 322 322 322 322
313 314 314 314 314 314 314 314 313 314 314 314 314 314 315 315 315 315 314 314 314 314 314 315 316 316 315 316 316 315 315 315 315 315 316 317 317 318 319 320 320 320 321 321 322 323 322 321 320 320 321 322 322 322 322 322 322 322 322 322 322 321 321
312 312 312 312 312 312 312 312 312 312 313 313 313 313 313 314 314 314 314 314 314 314 314 315 315 314 314 315 315 316 316 316 317 317 316 317 317 317 317 318 318 319 319 320 321 322 321 319 317 317 317 318 318 318 318 318 319 321 321 321 321 321 321
311 311 310 310 309 310 310 309 310 310 311 311 311 312 312 312 312 312 312 313 313 314 314 314 314 314 313 314 314 315 315 315 315 316 316 316 316 316 317 317 317 317 317 317 318 319 318 318 318 317 317 315 314 315 315 316 315 316 317 317 318 319 319
309 309 309 308 308 307 307 307 308 308 308 308 308 309 310 310 310 310 310 311 312 312 312 312 312 312 312 312 313 313 314 314 314 314 315 315 315 315 315 315 315 315 314 314 315 314 314 315 317 318 317 316 315 315 316 316 314 313 315 316 316 317 317
306 306 306 306 306 306 305 305 305 305 305 305 305 305 305 307 308 308 308 309 309 309 309 309 309 309 310 310 310 311 311 312 312 313 313 314 313 313 313 313 313 313 313 313 313 314 314 315 316 316 316 316 316 316 315 315 315 314 314 315 316 316 315
301 302 302 303 304 304 304 303 302 302 302 302 302 302 301 301 303 303 304 304 304 304 304 304 305 306 307 307 308 308 309 309 310 311 312 312 312 311 311 310 310 311 312 313 313 314 315 315 315 315 315 315 316 316 315 315 316 315 315 315 315 314 313
296 297 298 299 299 300 300 300 300 300 300 300 300 300 299 299 299 299 299 299 299 299 299 300 300 301 302 303 303 304 305 305 306 308 309 309 308 308 307 307 307 308 309 310 311 312 313 314 314 315 314 314 314 314 314 314 313 313 313 313 312 311 310
296 296 296 296 296 296 297 297 296 297 297 298 298 298 298 298 298 298 298 298 298 298 298 298 298 298 299 299 299 300 300 301 301 303 304 305 304 304 305 305 305 305 305 306 307 307 309 309 310 311 311 312 312 311 311 311 310 310 310 310 310 309 308

ECMWFFLT1_850_thetae_111.txt.gz
Theta_e
333 333 333 332 331 330 330 330 328 327 327 328 327 327 325 325 325 326 327 328 328 327 326 326 326 327 328 330 331 331 332 332 332 332 331 330 330 329 329 329 330 330 331 331 330 328 328 328 328 328 328 329 330 331 330 330 330 330 330 330 330 330 330
332 332 331 331 331 330 329 328 327 327 327 326 325 325 325 326 327 327 327 326 325 324 323 323 323 323 325 327 329 331 331 331 332 331 331 331 331 331 330 330 330 330 330 331 331 330 328 328 329 329 328 329 330 331 331 330 330 330 330 330 330 330 330
332 332 332 332 331 329 328 326 326 326 326 325 325 326 327 327 327 325 324 323 322 322 322 322 322 323 324 324 326 328 330 330 331 331 331 332 332 332 331 331 331 331 331 331 331 331 330 329 329 329 328 329 329 330 330 330 329 330 330 330 330 330 330
332 331 331 330 329 328 327 326 326 326 325 326 327 328 327 326 325 323 322 322 322 322 322 322 322 323 325 326 325 326 327 329 330 330 330 331 331 332 332 331 331 331 331 331 331 331 330 330 329 329 328 328 329 329 330 329 329 329 330 330 330 330 330
331 330 329 328 327 327 328 328 327 325 325 326 327 327 326 324 323 322 322 322 322 323 323 323 322 323 326 327 327 326 326 327 328 329 330 330 331 331 331 331 330 331 332 331 330 330 330 330 328 328 328 328 329 329 329 329 329 329 330 330 330 330 330
330 330 329 328 328 329 329 328 326 325 325 326 326 325 324 323 323 322 322 322 322 322 323 323 323 324 326 328 327 326 326 326 328 329 330 330 330 330 331 330 330 331 331 331 331 331 331 329 327 327 328 329 329 329 329 329 329 329 329 330 330 330 330
329 329 329 329 328 328 328 327 325 325 325 326 325 325 324 323 322 322 322 322 322 323 323 324 324 325 327 328 328 327 327 327 328 329 329 329 329 330 330 330 330 330 330 330 330 331 331 330 327 325 326 329 330 329 329 329 329 329 328 329 330 330 330
326 327 327 327 327 327 326 325 325 325 326 326 325 325 323 323 323 322 322 322 323 324 324 324 325 325 326 327 327 328 328 328 328 328 328 329 329 329 330 330 330 330 330 329 329 329 330 329 327 325 325 328 330 330 329 329 329 329 328 329 330 330 330
324 324 324 324 325 325 323 323 325 326 326 325 325 324 323 323 323 322 322 323 324 324 325 326 326 326 327 327 326 327 327 327 328 328 329 329 329 329 329 330 330 330 330 330 329 329 330 329 328 327 327 329 330 330 330 330 330 329 329 330 330 330 330
322 322 323 323 323 322 322 324 326 326 326 325 324 324 323 323 323 322 322 323 324 325 326 327 327 327 327 327 326 326 326 327 328 329 329 329 329 329 330 330 330 330 330 330 330 330 330 329 329 329 329 330 330 330 330 330 330 329 328 329 329 330 330
322 322 322 323 322 322 322 324 326 326 325 324 323 324 323 323 322 323 323 323 323 324 326 326 326 327 327 327 327 327 327 328 328 328 329 329 329 329 330 330 330 330 330 330 330 330 330 330 330 330 330 329 330 330 330 330 329 328 326 327 328 329 329
322 322 322 322 322 322 323 324 325 325 325 323 323 324 323 323 323 324 324 324 323 323 324 325 326 326 327 327 327 326 325 327 328 328 329 328 328 329 329 329 329 329 330 330 330 330 330 330 330 330 330 330 330 330 330 329 328 325 325 326 327 328 328
322 322 322 322 323 322 323 324 325 325 325 324 324 325 324 324 324 324 324 324 324 323 324 326 327 326 326 326 326 325 323 325 325 326 326 326 326 328 328 328 329 329 329 329 329 330 330 330 331 330 329 330 330 330 329 328 328 326 325 325 326 327 328
322 322 322 322 322 322 322 323 324 325 324 324 325 325 325 324 324 324 325 324 324 324 325 326 327 326 326 326 327 326 325 325 324 323 323 324 324 325 325 326 326 327 328 328 328 329 329 330 330 330 329 329 330 330 329 329 328 327 326 325 326 327 328
321 321 322 321 321 322 322 323 324 324 323 323 324 325 325 325 325 325 325 325 324 325 326 326 326 325 325 326 326 326 326 327 326 324 322 323 324 323 324 324 324 324 326 328 328 328 328 329 329 330 329 329 329 329 330 329 328 328 328 328 328 328 327
321 321 322 322 322 322 322 322 321 321 321 321 322 323 323 324 324 324 324 325 325 325 325 325 325 325 325 325 325 326 326 326 326 325 324 323 323 323 324 324 324 325 326 326 326 326 327 328 329 330 329 329 327 325 327 329 329 328 328 328 328 328 328
322 321 321 321 321 321 321 320 320 320 319 319 320 321 322 322 322 323 324 324 324 324 324 325 325 324 324 325 325 325 326 325 325 326 326 325 325 325 326 324 323 323 325 325 325 325 326 325 326 327 328 327 323 321 325 328 328 328 328 328 328 328 328
321 321 320 320 320 320 319 318 319 319 319 318 319 320 321 322 322 323 323 324 324 324 324 324 324 324 324 324 324 324 326 326 326 326 325 325 325 327 328 326 325 324 325 326 326 326 325 324 323 322 323 324 323 323 325 324 324 326 328 328 328 327 328
320 319 319 319 319 318 318 318 318 318 318 319 319 320 321 321 322 323 323 324 324 323 323 323 323 323 323 323 323 324 325 326 326 325 325 325 325 326 327 327 327 327 327 327 326 325 323 324 324 322 320 323 326 327 325 322 321 324 327 327 327 327 327
319 319 319 319 319 318 318 317 317 318 319 320 320 320 321 321 321 322 322 322 322 322 322 322 322 321 322 322 322 323 323 324 324 324 325 325 326 326 326 326 327 327 327 327 327 326 325 325 326 325 321 321 323 325 327 326 324 325 327 327 326 326 327
319 319 319 319 318 317 317 317 317 318 318 319 319 319 320 320 320 320 320 320 320 320 319 319 320 320 320 320 321 322 322 322 323 324 324 325 325 325 325 325 326 327 327 327 327 327 327 327 327 327 324 321 322 324 326 328 327 327 328 328 327 327 327
319 319 319 318 317 317 317 317 317 317 317 317 318 319 320 320 320 319 319 318 318 317 317 317 317 317 317 317 318 320 320 320 320 321 322 322 322 322 323 324 325 326 327 327 327 327 327 327 327 328 327 326 325 326 327 328 328 328 328 328 327 327 327
318 318 317 317 317 316 316 316 316 316 316 316 317 318 319 319 319 318 318 317 317 316 316 317 318 316 315 315 315 317 317 317 317 318 319 319 319 320 321 322 323 325 326 327 327 327 327 327 327 327 327 327 327 327 327 327 327 328 328 327 327 327 327
316 316 316 316 316 316 316 315 315 315 315 316 316 317 318 318 317 317 317 317 317 317 317 319 319 318 316 316 315 315 315 315 315 315 316 316 317 318 320 321 321 322 324 325 325 326 327 327 327 327 327 327 327 327 327 327 327 327 327 327 327 327 327
316 316 316 316 315 315 315 315 315 315 315 315 315 315 316 316 316 316 317 316 316 316 317 318 318 318 317 317 316 316 315 314 314 314 315 315 316 318 320 320 320 320 321 322 323 323 324 325 326 327 327 327 327 327 327 327 327 326 326 326 327 326 327
316 315 315 315 315 315 314 314 314 315 314 314 314 314 314 315 315 315 315 315 315 315 315 316 316 317 317 317 317 317 316 316 316 316 317 317 318 319 320 320 320 320 320 320 320 320 321 321 323 324 325 325 326 327 327 326 326 326 326 325 325 325 325
315 315 314 314 314 314 314 314 314 314 314 314 314 314 314 314 314 314 314 314 314 314 314 314 315 315 315 316 316 317 316 316 317 317 318 318 319 319 319 319 319 319 318 318 318 318 319 319 320 321 322 323 324 325 326 326 326 326 325 325 325 325 324
314 314 314 313 313 313 313 313 313 313 314 314 314 314 313 313 313 313 313 313 313 313 313 313 313 313 314 314 315 315 315 316 316 316 316 317 318 318 318 318 317 318 318 317 317 317 317 317 318 318 320 321 322 322 323 323 324 325 324 324 324 324 323
313 313 313 312 312 312 312 312 312 312 312 313 313 313 313 312 312 312 312 312 312 312 311 311 311 312 312 312 313 313 313 314 314 314 314 315 315 316 316 316 316 316 316 316 316 316 316 316 316 316 316 317 318 319 318 317 319 321 322 322 322 322 322
313 312 312 312 312 311 311 311 311 311 311 311 311 311 310 310 310 310 310 310 310 310 309 309 310 310 310 311 311 312 312 312 312 313 313 313 313 313 313 313 313 314 314 315 316 316 316 315 314 315 315 315 315 316 315 314 315 316 317 318 320 321 321
312 311 311 310 310 309 309 309 309 310 310 310 309 308 307 307 306 306 306 306 306 306 306 306 306 307 308 309 310 310 310 311 311 311 310 310 310 311 310 310 311 312 312 313 314 315 315 315 314 314 315 315 315 315 315 314 315 315 316 316 318 319 319
309 308 308 307 307 307 307 307 307 307 307 306 305 304 303 303 303 302 302 302 302 302 302 302 302 303 304 305 306 307 307 308 309 308 308 308 308 308 308 308 308 308 309 310 311 312 313 314 314 315 315 315 314 314 314 315 315 315 315 315 316 316 316
306 305 305 304 304 304 304 304 304 303 303 303 302 302 301 301 300 300 299 299 299 299 299 298 298 299 299 300 301 302 303 304 304 305 305 306 306 306 306 306 305 305 306 306 307 308 309 310 311 312 314 313 312 311 312 313 314 314 314 314 314 314 313
303 302 302 301 301 301 301 301 301 301 300 300 300 299 299 299 299 298 298 298 297 297 297 297 297 297 297 297 298 298 298 299 300 301 302 302 303 303 303 303 303 302 303 304 304 305 306 307 308 309 310 310 309 309 311 312 312 312 312 312 312 312 312
300 300 300 299 299 299 299 299 298 298 298 298 298 297 297 297 297 297 296 296 296 296 296 296 296 296 296 297 297 297 297 297 298 298 298 299 300 300 301 301 301 300 300 301 302 303 303 304 305 306 307 307 308 308 309 310 310 310 310 310 310 310 311
298 298 298 297 297 297 297 297 296 296 296 296 296 296 296 296 296 295 295 296 296 296 296 296 296 296 296 296 296 296 297 297 297 297 297 298 298 299 299 300 299 299 299 299 299 300 300 301 302 303 304 305 306 306 307 307 307 307 308 308 308 308 308
296 296 296 296 296 296 295 295 295 295 295 295 295 295 295 295 295 295 295 296 296 296 295 295 295 295 295 295 295 296 296 296 296 296 297 297 298 298 298 299 299 298 298 299 299 299 299 299 299 299 300 301 303 304 305 305 305 305 305 306 305 305 305

ECMWFFLT1_850_thetae_114.txt.gz
Theta_e
333 333 331 330 329 328 327 325 322 322 322 322 322 322 322 322 323 324 325 326 325 323 322 322 322 322 322 322 322 322 323 324 325 328 330 330 331 331 330 330 329 329 330 329 329 328 328 329 329 328 328 327 328 329 328 327 328 330 331 330 330 330 330
332 331 330 328 326 326 325 323 321 321 321 322 322 322 323 324 325 326 326 325 323 322 322 322 322 322 322 323 323 322 323 325 325 326 328 329 331 331 331 331 330 329 329 330 329 329 328 328 329 329 328 328 327 327 328 327 327 329 330 330 330 330 330
331 330 329 325 324 325 324 322 322 322 322 322 322 323 324 325 326 325 324 323 322 322 321 322 322 322 322 323 323 323 325 327 326 326 326 327 328 330 330 331 331 330 331 330 330 329 329 329 329 329 330 329 327 327 327 327 326 327 330 331 330 330 331
330 330 327 325 325 323 321 321 322 322 323 323 323 323 324 325 325 324 323 322 322 322 322 322 323 323 323 323 323 324 325 326 327 327 326 325 326 328 328 329 330 331 332 331 330 329 329 330 330 330 330 329 328 327 327 327 326 326 329 330 330 330 330
330 328 326 326 325 322 321 321 322 322 322 323 323 324 325 325 324 323 322 322 322 322 322 322 323 324 324 323 323 324 325 326 327 327 326 325 325 325 327 327 328 329 330 330 330 329 330 330 330 331 330 330 329 329 328 328 327 327 328 330 330 330 330
328 326 326 326 324 322 323 323 323 323 322 322 323 324 324 324 323 322 322 322 322 322 322 323 324 325 325 325 325 325 325 326 327 328 327 326 325 326 326 326 327 328 328 329 329 329 330 329 330 331 331 331 330 330 329 329 328 328 328 330 330 330 330
327 325 324 324 323 323 324 324 323 323 323 324 325 324 324 323 322 322 322 322 322 322 322 323 324 324 325 326 325 325 325 325 326 327 327 327 327 327 327 327 327 327 328 328 328 328 328 329 330 330 330 330 330 330 330 328 328 329 329 329 330 330 330
325 324 323 322 323 323 322 323 323 323 324 325 325 324 323 323 322 322 322 322 322 322 322 323 323 324 325 326 326 326 326 326 326 326 326 326 327 327 327 327 327 327 327 328 328 328 328 328 329 329 329 329 329 329 329 328 328 328 329 329 329 329 329
322 322 322 322 322 322 322 322 322 323 325 325 325 323 323 323 323 322 322 322 322 322 321 322 323 325 325 325 326 326 325 325 327 327 326 327 327 327 327 327 328 327 328 328 329 329 328 329 328 328 328 329 329 329 328 328 327 327 328 329 329 329 329
321 321 321 321 322 323 322 321 322 323 325 325 324 323 323 323 323 323 322 323 322 321 322 323 324 325 324 325 326 325 323 324 324 325 326 327 327 326 327 327 327 327 327 327 328 328 328 328 328 328 328 328 329 329 328 328 328 327 328 329 328 328 328
321 321 321 322 322 322 322 322 323 324 324 324 324 324 324 324 324 323 323 323 322 322 323 324 324 324 325 325 326 325 325 325 325 323 324 325 326 325 326 327 327 327 327 327 328 328 328 328 328 328 328 328 328 328 327 327 327 327 328 329 328 328 327
320 321 322 322 322 322 322 322 323 323 324 324 323 324 324 324 323 323 323 323 323 323 324 324 324 324 325 325 325 326 326 326 327 325 322 323 324 324 323 324 325 326 327 328 328 328 328 328 328 328 329 329 329 329 328 328 328 328 328 329 328 328 327
321 321 322 322 321 321 321 321 322 322 322 323 322 323 324 323 323 323 323 324 323 323 323 324 324 324 325 325 325 325 325 326 327 325 323 322 323 323 323 323 323 324 325 326 326 327 327 328 328 328 328 329 329 329 329 329 329 329 329 329 329 328 325
320 321 321 321 321 321 321 321 321 321 321 321 321 322 323 323 323 323 323 323 323 323 323 324 324 324 324 325 325 325 324 324 325 325 325 324 324 325 325 324 323 323 323 325 325 325 326 328 328 328 328 328 328 329 329 330 330 330 329 329 329 327 323
320 321 321 321 321 321 321 320 320 319 319 320 321 321 321 321 322 322 322 323 323 323 323 323 323 324 324 324 324 324 325 325 325 325 325 324 325 326 327 326 324 322 322 324 325 324 325 327 327 327 328 329 328 329 329 329 329 329 328 328 328 326 324
320 321 321 321 320 320 320 319 319 319 318 319 320 320 321 321 321 322 322 322 323 323 323 322 322 322 322 322 323 324 324 324 324 325 325 325 325 326 326 327 326 325 324 325 326 325 326 326 325 324 324 326 327 328 329 329 328 327 326 327 328 327 325
321 320 320 320 319 319 319 318 318 318 318 319 320 320 321 321 321 321 321 321 322 322 322 321 321 321 321 322 322 323 323 323 324 324 324 324 325 326 326 326 327 327 326 326 326 326 325 325 325 324 323 322 323 326 327 325 324 322 322 323 325 326 326
320 319 318 318 318 318 318 317 318 319 319 319 320 320 321 321 321 320 320 321 321 320 320 320 319 319 321 321 321 321 322 323 323 323 322 323 324 325 325 326 326 327 326 327 327 326 325 324 323 325 324 322 323 325 325 322 320 320 320 320 322 324 325
318 318 318 318 318 317 317 318 319 319 319 319 319 320 320 320 320 319 319 319 319 318 318 317 316 317 318 319 319 319 319 320 321 320 320 320 321 322 323 324 325 326 326 327 327 326 326 325 324 324 324 323 323 325 324 324 323 322 321 321 320 321 323
318 318 318 317 317 317 318 318 318 318 318 319 319 320 319 319 318 318 318 317 317 316 316 315 315 315 316 317 316 316 316 317 318 318 318 319 320 320 321 322 323 324 325 325 326 326 326 326 326 325 325 324 323 324 325 326 325 324 322 322 321 320 322
318 318 317 317 317 317 317 316 316 316 317 318 318 319 319 318 317 317 317 316 316 316 316 315 315 315 316 316 316 315 315 315 316 316 317 318 320 319 320 320 322 322 322 323 324 324 325 326 326 325 325 325 324 325 325 325 325 325 324 324 323 323 324
318 317 317 316 316 316 315 315 315 316 316 317 318 318 318 317 317 317 317 316 316 316 316 315 315 315 315 315 315 314 314 315 315 316 317 318 319 319 320 320 320 320 320 321 321 322 323 324 325 325 325 325 325 325 325 325 325 325 324 324 324 325 325
317 317 316 316 315 315 315 315 315 315 316 316 317 316 316 316 316 317 316 316 316 316 315 315 315 316 315 315 316 316 315 315 315 316 317 318 318 319 319 319 318 318 318 318 319 319 320 321 322 323 325 325 325 325 325 325 325 324 324 324 324 325 325
316 316 315 315 315 315 315 314 314 315 315 315 315 315 315 315 315 315 315 315 315 315 314 314 314 315 315 315 316 316 315 315 315 315 316 316 317 318 318 317 317 317 316 316 317 317 317 318 319 320 322 323 325 325 325 325 324 324 324 323 324 324 324
315 315 315 315 314 314 314 314 314 314 314 314 314 314 314 314 314 314 314 314 314 314 313 313 314 314 314 314 315 315 315 315 315 315 314 314 316 317 316 316 316 316 316 316 316 316 316 316 316 317 318 320 321 322 323 324 323 323 323 323 323 323 323
315 315 314 314 314 314 314 314 314 314 314 313 313 313 313 313 313 313 313 313 313 312 312 312 312 312 312 313 313 313 314 314 315 314 314 314 314 315 315 315 315 315 315 315 315 315 315 315 315 315 316 316 317 318 319 320 321 321 322 322 322 322 322
314 314 313 313 313 313 313 313 313 313 313 313 313 313 313 313 312 312 312 312 312 311 311 310 311 311 311 311 311 312 312 312 313 313 313 313 313 313 313 313 313 313 314 314 314 315 314 315 314 314 314 315 315 315 316 317 317 318 319 320 320 321 321
313 313 313 313 313 313 313 313 313 313 313 312 312 312 312 311 311 311 310 310 310 310 309 309 309 309 309 310 310 310 310 311 311 311 311 311 311 310 310 310 310 311 312 312 313 314 314 314 315 314 315 314 314 314 315 315 315 315 316 317 317 318 318
313 312 312 312 312 312 312 312 311 311 311 311 311 310 310 309 308 308 308 308 308 307 306 306 306 307 307 308 308 309 309 309 309 309 309 309 308 308 308 309 309 309 310 310 311 312 312 313 315 315 314 314 314 315 314 314 314 315 315 315 315 315 315
312 312 312 311 311 311 311 310 310 310 309 309 308 307 306 306 305 304 304 303 303 302 301 301 301 302 303 304 305 306 306 307 307 306 306 306 305 305 305 306 306 307 308 308 308 309 310 312 313 314 313 312 313 313 313 313 313 313 313 313 313 312 312
311 311 310 310 310 310 309 309 308 307 307 306 305 304 303 302 301 300 299 299 298 298 298 298 298 298 298 299 300 301 302 302 303 303 303 302 302 302 302 302 302 303 304 305 306 307 308 309 310 311 311 311 311 311 311 311 312 311 311 311 311 311 311
309 309 308 308 308 307 307 306 305 304 304 303 302 300 299 299 298 297 297 297 296 296 296 296 296 296 296 296 297 297 298 298 298 299 299 300 300 300 300 300 300 300 301 301 302 304 305 306 307 308 308 309 309 309 308 309 309 309 309 309 309 309 309
307 306 306 305 305 304 303 303 302 301 301 300 299 298 297 297 296 296 296 295 296 295 295 295 295 295 295 295 295 296 296 296 296 296 297 297 298 298 298 299 299 299 299 299 300 301 301 303 304 305 306 306 307 306 306 307 307 307 307 307 307 307 307
304 303 302 302 301 301 301 300 299 299 298 298 297 297 296 296 295 295 295 295 295 295 295 295 295 294 295 295 295 295 295 295 295 296 296 296 296 297 297 298 299 299 299 299 299 299 299 299 300 301 302 303 303 304 305 305 306 306 306 306 306 306 306
301 300 300 300 299 298 298 298 297 297 296 296 296 295 295 295 295 295 294 294 294 294 294 294 294 294 294 294 294 294 294 295 295 295 295 295 296 297 297 297 298 298 299 298 298 298 298 298 298 298 299 300 301 301 303 303 304 304 304 305 304 304 304
299 298 298 298 297 297 297 296 296 295 295 295 295 295 295 294 294 294 294 294 294 294 294 294 294 294 294 294 294 294 294 294 294 294 294 294 295 296 296 296 297 297 297 297 297 298 297 297 297 297 297 297 298 299 300 300 301 302 302 302 302 302 302
297 297 296 296 296 296 295 295 295 295 295 295 295 295 294 294 294 294 294 294 294 294 293 293 293 293 294 294 294 294 294 294 294 294 294 294 294 294 295 295 295 295 295 295 296 297 297 297 297 297 297 297 297 298 298 299 299 300 300 299 299 300 300

ECMWFFLT1_850_thetae_117.txt.gz
Theta_e
332 331 331 331 331 330 330 328 326 325 324 323 323 322 322 322 323 324 324 324 324 323 322 321 321 321 322 322 323 324 325 325 325 325 326 327 327 327 326 327 328 329 329 329 330 330 329 329 329 329 329 328 328 328 327 327 328 328 329 329 329 329 330
331 330 330 330 330 329 328 325 323 322 322 322 322 321 322 322 323 324 324 324 323 322 322 321 321 321 322 323 324 325 325 325 325 325 327 327 327 328 327 327 326 327 328 329 329 330 330 329 328 329 329 329 329 328 328 327 327 327 327 328 328 328 329
330 330 330 329 328 327 323 321 321 321 321 320 320 321 322 323 324 324 323 323 322 321 321 321 321 322 322 323 325 326 327 326 325 326 326 327 327 327 327 327 326 326 327 327 328 329 329 329 329 329 329 330 329 328 327 327 327 326 325 327 328 328 328
330 329 328 326 325 323 321 320 320 320 319 319 320 322 323 324 323 323 322 321 321 321 321 321 321 322 322 323 325 327 328 327 326 326 326 326 327 327 327 327 326 326 327 327 328 329 329 329 329 328 328 329 329 328 327 327 328 328 326 326 327 328 327
330 328 326 324 322 321 321 320 319 318 319 319 321 322 323 323 323 322 322 321 321 321 321 321 321 322 323 324 325 327 327 327 327 327 327 326 326 326 327 327 327 326 326 327 327 328 328 328 328 329 329 329 329 329 328 328 329 329 329 327 327 327 326
329 327 325 323 321 320 320 319 319 319 319 320 322 323 323 323 322 322 321 321 321 322 321 321 321 323 324 323 325 326 325 325 326 326 327 327 327 327 327 327 327 327 327 327 327 327 327 328 328 328 329 329 329 330 329 329 330 330 330 329 327 327 326
329 326 324 322 321 321 319 319 320 320 320 321 322 323 323 323 322 322 322 322 322 321 321 322 323 323 323 323 325 325 324 324 325 326 326 326 327 327 327 327 327 327 327 327 327 327 327 327 328 328 328 328 328 329 329 329 330 330 330 329 328 328 327
328 324 322 321 320 319 318 320 321 321 321 322 323 323 323 323 323 322 322 322 322 321 322 323 323 323 323 324 325 325 325 326 326 326 325 324 325 326 326 326 326 327 327 327 327 327 327 327 328 328 328 328 328 329 329 329 329 329 330 330 329 328 328
325 323 321 321 319 318 319 321 322 321 322 322 323 323 323 323 323 322 322 322 322 322 323 323 323 323 324 325 325 325 325 326 327 326 325 324 325 325 325 325 325 325 326 327 327 327 327 327 328 329 328 329 329 329 329 329 329 328 329 330 329 329 327
323 322 321 319 319 320 321 322 322 322 321 322 322 323 323 323 323 322 323 323 322 322 323 323 323 323 324 324 325 324 324 325 326 326 325 325 325 325 325 325 324 323 324 326 327 327 327 328 328 328 328 329 329 329 329 329 329 329 329 329 329 328 326
321 321 320 319 320 321 321 321 321 320 320 321 322 323 323 323 323 323 323 323 323 323 323 324 324 324 324 324 324 325 324 324 325 325 325 325 325 326 326 326 324 323 323 324 325 326 326 327 328 328 328 328 328 328 329 329 329 329 329 329 328 327 326
321 320 320 321 321 321 320 320 320 320 320 321 322 322 322 322 323 323 323 323 323 323 323 323 324 323 323 323 324 325 325 324 325 325 324 324 325 325 325 326 326 324 323 323 325 325 325 326 327 328 328 328 328 328 328 329 329 328 328 328 327 325 325
319 319 321 321 321 320 320 320 320 320 320 321 321 321 321 322 322 322 322 323 323 323 322 322 322 322 322 323 323 324 324 324 324 324 324 324 325 325 325 326 326 326 325 325 326 326 326 326 326 327 327 327 327 328 328 328 329 329 328 328 327 325 325
319 320 321 321 320 320 320 320 320 319 320 320 321 321 321 321 321 321 322 322 322 322 321 321 321 321 321 322 322 323 323 323 323 323 323 324 324 325 325 325 326 326 326 326 326 326 326 325 325 325 324 324 324 325 327 328 328 329 328 328 328 327 327
320 320 321 321 320 320 320 319 319 319 319 320 321 321 321 320 320 321 322 322 321 320 320 320 320 320 320 320 321 322 322 321 321 321 322 323 323 324 324 325 325 326 326 326 326 326 326 324 324 323 323 323 322 322 325 328 328 328 328 328 328 328 328
320 320 321 320 320 319 319 319 318 318 319 320 321 321 321 320 320 321 321 320 319 318 317 318 318 318 317 318 318 319 319 319 319 320 320 321 321 322 323 323 324 324 325 325 326 326 326 326 325 323 323 323 322 321 324 326 327 328 327 327 327 327 326
321 321 320 319 318 318 318 318 319 319 319 320 320 320 320 319 319 320 319 318 317 316 316 316 317 317 316 315 315 315 316 317 318 319 320 320 320 321 321 322 322 322 323 323 324 325 326 326 326 324 323 324 323 322 323 324 325 325 324 324 323 322 321
321 319 318 318 318 318 319 319 319 319 320 320 320 319 319 319 318 318 317 317 316 316 315 315 315 316 315 314 314 314 315 316 317 319 319 320 320 320 320 320 320 321 321 322 323 324 325 325 325 325 325 325 324 324 323 324 324 324 324 323 322 322 322
319 318 317 317 318 318 319 318 318 318 319 319 319 319 318 318 317 317 317 316 316 316 315 314 314 314 314 314 314 314 315 317 318 318 319 319 319 319 319 318 318 318 319 320 321 321 323 324 324 325 325 325 325 324 324 323 324 324 325 324 324 324 323
317 317 317 318 318 318 317 316 317 317 318 319 319 318 318 317 317 317 317 316 316 316 315 314 314 314 315 315 315 315 315 316 317 318 318 318 318 317 317 317 316 316 317 317 317 318 319 321 322 323 324 325 325 325 324 324 324 324 324 324 324 324 323
316 317 317 317 317 316 315 315 316 317 317 317 317 317 317 317 316 316 316 316 315 315 314 314 314 315 315 315 315 315 314 314 315 316 317 317 316 316 316 316 315 315 316 316 316 316 316 317 318 320 321 323 323 324 324 324 324 323 323 324 323 323 323
316 316 316 316 315 315 315 315 316 316 316 316 316 316 315 315 315 315 315 314 314 314 314 313 313 314 314 314 314 314 314 313 314 315 316 315 315 315 315 315 315 315 315 316 315 315 315 315 315 316 318 319 320 321 322 322 322 322 322 322 322 322 323
316 316 315 315 315 315 315 315 315 315 315 315 315 314 314 314 314 314 314 313 313 313 313 312 312 312 312 312 313 313 313 313 313 313 313 314 314 313 313 314 314 314 314 315 315 315 314 314 314 315 315 316 317 318 319 319 320 321 321 321 321 321 321
316 315 315 315 314 314 314 314 314 314 314 314 314 313 313 313 313 313 313 313 312 312 311 311 311 311 311 311 311 312 312 312 312 312 312 312 312 312 312 311 312 312 312 313 314 314 314 314 314 314 315 315 315 316 316 316 316 317 317 317 318 318 318
315 315 314 314 314 314 314 314 314 313 313 313 313 313 313 312 312 312 312 312 311 311 310 309 309 310 310 310 310 310 311 311 311 311 310 311 311 310 310 310 310 310 311 311 312 313 314 314 314 314 314 314 314 314 314 313 313 313 313 313 314 314 314
314 314 314 314 314 313 313 313 313 313 313 312 312 312 312 311 311 311 310 310 309 309 308 307 307 308 308 308 308 309 309 309 309 309 308 308 308 308 309 309 309 309 309 310 310 312 313 312 312 312 313 313 312 312 311 311 310 311 311 311 311 311 311
314 313 313 313 313 313 313 313 313 312 312 312 311 311 310 310 309 309 308 307 307 305 305 304 305 305 305 305 306 306 307 307 306 306 306 305 305 305 305 305 306 306 307 307 308 310 311 311 311 311 311 311 311 310 310 309 308 308 309 309 309 309 309
313 313 313 313 313 313 313 312 312 311 311 310 309 309 308 307 306 305 304 303 303 301 301 301 301 301 301 302 302 303 303 303 302 302 301 301 301 300 301 301 301 302 303 304 305 307 308 309 309 310 309 309 309 308 308 308 307 307 307 307 307 307 307
312 312 312 312 312 312 311 311 310 309 308 308 307 305 304 303 302 301 300 299 299 298 298 298 298 298 298 298 298 298 299 299 298 298 298 298 298 298 298 298 299 299 299 300 301 303 304 306 307 307 307 307 307 306 306 306 306 306 306 306 306 306 306
312 311 311 311 311 310 310 309 308 306 306 305 303 302 301 299 298 298 297 297 297 296 296 296 296 296 296 296 296 296 296 296 297 297 297 297 297 297 298 298 298 298 298 298 299 299 300 301 302 303 304 304 304 304 304 304 305 305 305 305 305 305 305
311 311 310 310 310 309 308 306 304 304 303 302 300 299 298 297 296 296 296 296 295 295 295 295 295 295 295 295 295 295 295 295 295 296 296 296 296 297 297 297 297 297 298 298 298 298 298 298 299 300 301 302 302 303 303 303 304 304 304 304 304 304 304
310 309 309 308 307 306 304 303 302 301 300 299 298 297 296 296 296 295 295 295 295 295 294 294 294 294 295 295 295 295 295 295 295 295 295 295 295 295 296 296 297 297 297 297 297 297 297 297 298 299 299 300 301 301 301 301 302 302 303 303 303 303 303
308 308 307 305 304 303 302 301 300 299 298 297 296 296 295 295 295 295 294 294 294 294 294 294 294 294 294 294 295 295 295 295 294 295 294 294 294 295 295 295 296 296 296 296 296 297 297 297 297 298 298 299 299 299 299 299 300 300 300 301 302 302 302
306 304 303 302 301 300 299 299 298 297 296 296 295 295 295 295 295 295 294 294 294 294 294 294 294 294 294 294 294 294 294 294 294 294 294 294 294 294 294 294 295 295 296 296 296 296 296 297 297 297 298 298 298 298 298 298 298 298 298 299 300 301 301
302 301 300 300 299 298 297 297 296 296 295 295 295 295 295 294 294 294 294 294 294 294 294 294 294 294 294 294 294 294 294 294 294 294 294 294 294 294 294 294 295 295 295 295 295 296 296 296 296 297 297 297 297 297 297 298 298 298 298 299 300 300 301
300 299 298 298 297 297 296 296 295 295 295 295 294 294 294 294 294 294 294 294 294 294 294 294 294 294 294 294 294 294 294 294 294 294 294 294 293 294 294 294 294 294 294 294 295 295 296 296 296 296 296 297 297 297 297 297 298 298 298 299 299 300 300
298 298 297 296 296 296 295 295 295 294 294 294 294 294 294 294 294 294 294 294 293 293 294 293 293 293 294 294 294 293 294 294 294 294 294 293 293 293 294 294 294 294 294 294 294 295 295 295 296 296 296 296 296 296 297 297 297 298 298 298 299 299 299

ECMWFFLT1_850_thetae_123.txt.gz
Theta_e
339 337 336 335 335 335 334 333 331 328 326 326 327 326 326 327 327 328 329 329 328 329 328 328 328 328 329 329 328 329 330 331 331 331 331 330 329 329 329 328 328 328 329 329 330 330 329 329 328 327 329 330 328 326 326 326 327 328 330 331 331 331 331
337 335 334 335 335 333 332 331 330 329 328 327 327 326 326 328 328 328 328 328 328 328 328 328 328 328 328 328 328 329 330 331 331 331 330 328 329 329 329 329 328 328 328 327 328 329 329 329 329 328 329 330 329 328 327 326 327 326 327 330 332 331 330
335 335 334 334 333 332 331 331 330 330 330 329 328 327 326 327 327 326 326 327 327 327 327 327 327 327 328 327 328 328 329 330 331 331 330 329 329 329 328 329 329 329 329 328 328 328 327 328 329 329 328 328 330 330 328 327 328 328 327 328 331 331 330
334 334 334 333 331 331 330 330 329 329 329 328 327 327 326 326 326 325 325 326 326 325 324 324 324 326 327 327 328 328 328 330 330 330 330 328 329 329 328 328 329 329 329 329 328 327 326 327 328 329 329 328 328 330 329 328 328 329 328 328 329 331 331
333 333 332 331 330 330 329 328 327 328 328 327 327 328 326 325 325 325 324 325 325 323 323 323 323 325 326 327 327 327 328 328 329 329 329 328 328 329 328 328 328 328 328 329 328 328 328 328 327 328 329 328 327 328 329 329 328 328 329 329 328 329 331
332 331 330 330 329 328 328 328 327 327 327 327 327 326 325 324 324 323 323 323 322 322 323 323 324 326 326 327 327 327 327 327 328 329 328 328 328 327 327 326 326 327 327 328 328 328 327 327 327 328 327 327 327 328 329 330 330 329 329 330 329 329 330
331 330 330 329 328 327 327 327 327 326 326 327 326 325 323 323 322 322 322 322 322 323 323 323 324 325 326 327 327 327 326 327 328 328 327 327 327 326 325 325 324 325 326 327 327 326 326 326 327 327 326 326 327 327 328 329 330 330 330 330 330 330 329
330 329 327 326 326 326 325 326 325 324 324 325 325 324 323 323 323 322 322 323 323 323 323 323 322 324 325 326 326 325 324 325 326 326 325 325 325 324 324 324 324 324 325 326 326 326 327 328 327 326 326 326 326 327 327 328 329 329 329 329 330 330 329
328 327 325 324 324 324 324 324 324 323 323 323 323 323 323 323 322 322 323 323 323 322 322 321 322 323 324 324 323 323 322 323 323 322 322 322 323 323 323 323 323 323 324 324 325 326 326 327 326 326 327 327 327 328 327 327 327 327 327 327 328 328 328
326 325 324 324 323 322 322 322 322 322 323 323 322 323 323 322 322 323 323 322 322 321 321 321 321 322 322 321 321 321 320 321 321 321 320 321 321 322 322 322 322 322 323 323 324 325 326 326 326 327 327 327 327 327 327 327 327 327 326 326 327 328 328
324 323 323 323 322 322 322 321 321 322 322 322 323 322 322 322 322 322 322 322 322 321 321 321 321 320 319 318 318 319 320 319 320 320 319 320 320 321 321 321 321 321 321 322 323 324 325 325 326 326 326 327 327 327 326 326 326 326 326 325 325 327 328
323 322 322 323 322 321 322 321 321 322 321 322 322 321 322 322 322 322 321 321 321 321 321 320 319 319 318 317 317 319 319 318 318 319 319 319 319 319 319 319 319 319 320 320 321 322 323 325 325 325 325 326 327 327 326 326 325 326 327 326 324 325 327
321 321 321 321 321 321 321 321 321 321 321 321 321 321 321 321 321 321 320 321 321 320 320 319 318 319 318 318 318 318 318 318 318 319 318 318 318 318 317 317 317 318 318 318 318 319 321 322 323 324 324 325 325 326 326 326 326 326 326 326 325 324 325
321 321 321 321 320 320 320 321 321 321 320 320 320 320 320 320 320 320 319 319 319 319 319 318 317 318 318 318 318 317 317 318 318 318 317 317 317 316 316 316 316 316 316 316 316 317 318 320 320 321 323 323 323 324 325 326 326 325 325 325 325 325 324
321 321 320 320 319 320 321 321 320 321 320 320 320 320 320 319 319 319 318 318 318 318 318 317 317 317 317 317 317 317 317 317 317 317 317 316 316 315 314 314 314 315 315 315 315 316 317 318 319 320 321 322 322 323 323 324 324 324 324 324 324 324 324
321 320 320 319 319 320 320 320 321 320 320 319 319 319 318 318 318 318 318 317 317 317 317 317 317 317 317 317 317 317 317 316 316 317 316 316 315 314 313 313 313 314 314 314 314 315 315 316 317 319 320 320 320 320 320 321 322 322 322 323 322 322 322
320 320 319 319 319 320 320 320 320 320 319 318 318 318 318 318 317 317 317 317 317 317 317 316 316 316 316 316 316 316 316 316 316 316 315 315 314 313 312 313 313 313 313 313 313 313 314 314 315 317 317 318 318 318 318 318 319 319 320 320 319 319 319
319 319 319 319 319 319 319 319 319 318 318 318 318 317 317 317 317 316 316 316 316 315 315 316 316 316 316 315 315 316 315 315 315 315 315 315 314 312 312 312 312 312 312 313 313 313 313 313 313 314 315 316 316 317 317 316 316 315 316 316 316 315 316
319 319 319 318 318 318 318 318 318 317 317 317 317 316 316 316 315 315 315 314 314 314 314 314 315 315 315 314 314 314 314 314 314 314 314 314 313 312 311 311 311 311 311 311 312 312 312 312 312 312 313 314 315 315 316 316 315 314 313 313 313 313 313
319 319 317 317 317 317 317 317 317 316 316 316 316 316 315 315 314 314 314 313 313 313 313 312 313 313 314 314 313 313 313 313 313 313 313 312 312 312 311 310 310 310 310 310 310 310 311 311 311 311 311 312 312 313 314 314 314 313 312 311 312 312 311
319 318 316 316 316 317 316 316 316 316 316 315 315 315 314 314 313 313 313 313 312 312 311 310 310 311 312 312 312 311 311 311 312 312 311 311 311 311 310 309 309 309 309 309 309 309 309 309 309 309 309 309 309 310 311 311 312 312 311 310 310 310 310
318 316 316 316 316 316 316 315 315 315 315 315 314 314 313 313 313 312 312 312 310 309 308 306 307 308 309 310 311 310 309 309 309 310 310 309 308 308 309 308 307 307 308 308 308 309 308 308 307 306 306 305 305 306 308 309 309 309 309 309 308 308 308
317 316 316 316 315 315 315 315 315 314 314 314 313 313 313 312 312 311 310 308 306 304 302 302 304 305 306 307 308 307 305 305 306 306 307 307 306 305 305 304 304 305 306 308 308 308 308 307 305 304 304 304 303 303 305 306 307 307 307 307 306 306 306
316 316 315 315 315 315 315 314 314 314 313 313 313 312 312 311 310 308 306 303 301 299 299 299 301 302 301 302 304 304 302 301 301 302 303 305 304 303 301 300 300 301 304 307 308 308 308 308 305 304 305 304 303 303 303 304 306 306 306 306 305 305 305
315 315 315 315 315 314 314 314 314 313 313 312 312 311 310 309 306 303 301 299 298 297 297 298 298 298 298 298 300 301 299 297 298 298 299 300 300 299 298 298 297 298 301 305 307 308 308 308 307 305 305 305 304 303 303 303 304 305 305 305 305 305 304
315 315 315 314 314 314 313 313 313 312 312 311 310 309 306 304 301 299 298 297 297 296 296 297 296 297 297 296 298 301 299 295 296 296 296 297 297 297 297 297 297 297 298 301 304 306 307 307 307 306 305 305 305 304 303 303 303 304 304 304 304 304 304
315 315 314 314 313 313 313 312 312 311 310 309 307 304 302 300 298 297 297 296 296 296 296 296 296 296 296 295 299 303 301 297 295 296 295 296 296 296 296 296 296 296 297 298 301 304 306 307 306 306 306 305 305 304 303 303 303 303 304 304 304 304 303
314 314 313 313 313 312 312 311 310 309 308 305 303 300 298 297 297 296 296 296 296 295 295 295 295 295 296 298 300 303 302 299 297 295 295 295 296 295 295 296 296 296 296 297 298 300 303 306 306 306 306 305 305 304 303 303 303 303 303 303 303 303 303
313 313 313 312 312 312 311 310 308 306 303 301 300 299 298 297 296 295 295 295 295 295 295 295 295 295 297 301 304 303 302 300 298 297 296 295 295 295 295 295 295 296 296 296 297 297 299 303 306 306 306 305 304 304 303 303 303 302 303 303 303 303 303
313 313 312 311 311 310 308 306 304 301 300 298 298 299 298 297 296 295 295 295 295 295 295 295 295 295 298 302 304 304 304 302 301 300 298 297 296 295 295 295 295 295 296 296 296 296 296 299 303 305 305 305 304 304 303 303 303 303 303 303 303 303 303
312 312 311 310 309 307 305 303 300 299 298 297 297 297 296 296 295 295 295 295 295 295 295 295 295 295 297 301 303 304 304 304 303 302 301 299 298 296 295 295 295 295 296 296 296 296 296 297 300 303 304 304 304 304 303 303 303 303 303 303 303 303 303
311 310 310 308 306 305 302 300 298 298 298 299 299 298 297 295 295 295 295 295 295 295 295 295 295 295 297 299 302 303 303 303 303 303 302 300 299 297 295 295 295 295 295 295 295 296 296 296 297 300 302 303 303 303 303 303 303 303 303 303 303 303 303
310 309 308 306 303 302 300 298 298 300 301 302 301 300 297 296 295 295 294 294 294 295 295 295 295 295 296 297 300 303 303 303 303 302 301 301 299 298 296 295 295 295 295 295 295 295 295 295 297 298 300 301 302 302 303 303 303 303 303 302 303 303 303
309 308 305 303 301 301 300 298 299 302 303 301 299 298 297 295 294 294 294 294 294 294 295 295 295 295 295 295 296 298 300 301 302 302 301 300 299 298 296 295 295 295 295 295 295 295 295 295 296 298 299 300 301 302 302 303 303 302 302 302 302 302 302
308 305 302 301 301 300 298 298 300 301 300 298 297 298 298 297 295 295 294 294 294 294 294 295 295 295 295 295 295 295 296 297 299 300 300 299 298 297 296 295 295 295 295 295 294 294 294 295 295 297 298 299 300 301 302 302 303 302 302 302 302 302 302
305 302 301 301 300 298 297 298 299 299 298 298 299 300 300 299 298 297 296 294 294 294 294 294 294 294 295 295 294 295 295 295 296 297 297 297 297 296 295 295 294 294 294 294 294 295 295 295 295 296 297 298 299 300 301 301 302 302 301 301 301 302 302
302 300 300 300 298 296 296 298 299 300 301 301 301 301 301 301 300 300 299 297 295 294 294 294 295 294 295 295 294 294 294 294 294 295 295 295 295 294 294 294 294 294 294 294 295 296 296 296 296 296 297 297 298 299 300 301 301 301 301 301 301 301 301